Darstellungsparameter: Aktuell verwendete Einstellungen:
Skalierung der Graphiken ... ?
xyx+y,   Skalierungsfaktor:      Skalierung: Modus: x, Faktor: 1
Darstellungszeitraum ... ?
Vom - - bis: - -   Zeitraum: 31.03.2014 - 06.04.2014
Min/Max/Avg-Anzeige ... ?
Zeige MMA aktuell
Zeige MMA Monat
Zeige MMA alles
Zeige --A aktuell
Zeige --A Monat
Zeige --A alles
Keine MMA-Anzeige
MMA:
Keine MMA-Graphiken
MMA-Basis: 31.03.2014 - 06.04.2014
Quicknavigation für Darstellung... ?
Tage:      1T, 2T, 3T, 5T -1T -2T -3T -5T +1T +2T +3T +5T
Wochen: 1W, 2W, 3W -1W -2W -3W +1W +2W +3W
Monate: 1M, 3M, 6M -1M -3M -6M +1M +3M +6M
Jahre:    1J, 3J, 5J, 10J -1J -3J -5J -10J +1J +3J +5J +10J
Nutze für die Darstellung ... ?
Originaldaten oder Mittelwerte auf ...
Stundenbasis Tagesbasis Wochenbasis
Monatsbasis Jahresbasis      Datenbasis: Original-Daten
Darstellen als:
Statistik (Auto) Statistik J:M      Darstellung:
Zur Graphik,    zurück zur Übersicht aller Sensoren.
 
Tabellarische Datenbersicht: ?
 
Sensor: Nr:Datum:Temp:Feuchte:Taupunkt:
Aussen-T/F 1 31-03-2014 00:00:00 10.1 C 73 % 5.49 C
2 31-03-2014 00:05:00 10.1 C 74 % 5.68 C
3 31-03-2014 00:10:00 10 C 74 % 5.59 C
4 31-03-2014 00:15:00 9.9 C 76 % 5.87 C
5 31-03-2014 00:20:00 9.9 C 76 % 5.87 C
6 31-03-2014 00:25:00 9.8 C 77 % 5.97 C
7 31-03-2014 00:30:00 9.7 C 76 % 5.68 C
8 31-03-2014 00:35:00 9.7 C 77 % 5.87 C
9 31-03-2014 00:40:00 9.7 C 77 % 5.87 C
10 31-03-2014 00:45:00 9.7 C 78 % 6.06 C
11 31-03-2014 00:50:00 9.4 C 79 % 5.95 C
12 31-03-2014 00:55:00 9.3 C 79 % 5.85 C
13 31-03-2014 01:00:00 9.2 C 79 % 5.75 C
14 31-03-2014 01:05:00 9.1 C 79 % 5.66 C
15 31-03-2014 01:10:00 9.1 C 79 % 5.66 C
16 31-03-2014 01:15:00 8.9 C 79 % 5.46 C
17 31-03-2014 01:20:00 8.8 C 80 % 5.55 C
18 31-03-2014 01:25:00 8.8 C 80 % 5.55 C
19 31-03-2014 01:30:00 8.8 C 81 % 5.72 C
20 31-03-2014 01:35:00 8.7 C 82 % 5.8 C
21 31-03-2014 01:40:00 8.6 C 81 % 5.53 C
22 31-03-2014 01:45:00 8.6 C 81 % 5.53 C
23 31-03-2014 01:50:00 8.7 C 81 % 5.63 C
24 31-03-2014 01:55:00 8.7 C 81 % 5.63 C
25 31-03-2014 02:00:00 8.7 C 81 % 5.63 C
Sensor: Nr:Datum:Temp:Feuchte:Taupunkt:
Aussen-T/F 26 31-03-2014 02:05:00 8.5 C 81 % 5.43 C
27 31-03-2014 02:10:00 8.3 C 82 % 5.41 C
28 31-03-2014 02:15:00 8.3 C 82 % 5.41 C
29 31-03-2014 02:20:00 8.2 C 83 % 5.49 C
30 31-03-2014 02:25:00 8.3 C 83 % 5.59 C
31 31-03-2014 02:30:00 8.3 C 83 % 5.59 C
32 31-03-2014 02:35:00 8.3 C 83 % 5.59 C
33 31-03-2014 02:40:00 8.3 C 83 % 5.59 C
34 31-03-2014 02:45:00 8.3 C 83 % 5.59 C
35 31-03-2014 02:50:00 8.2 C 83 % 5.49 C
36 31-03-2014 02:55:00 8.2 C 83 % 5.49 C
37 31-03-2014 03:00:00 8.3 C 83 % 5.59 C
38 31-03-2014 03:05:00 8.3 C 83 % 5.59 C
39 31-03-2014 03:10:00 8.3 C 83 % 5.59 C
40 31-03-2014 03:15:00 8.3 C 83 % 5.59 C
41 31-03-2014 03:20:00 8.2 C 83 % 5.49 C
42 31-03-2014 03:25:00 8.1 C 83 % 5.39 C
43 31-03-2014 03:30:00 7.9 C 84 % 5.37 C
44 31-03-2014 03:35:00 7.8 C 84 % 5.27 C
45 31-03-2014 03:40:00 7.8 C 84 % 5.27 C
46 31-03-2014 03:45:00 7.9 C 85 % 5.54 C
47 31-03-2014 03:50:00 7.9 C 85 % 5.54 C
48 31-03-2014 03:55:00 8 C 84 % 5.47 C
49 31-03-2014 04:00:00 8.1 C 84 % 5.56 C
50 31-03-2014 04:05:00 8 C 84 % 5.47 C
Sensor: Nr:Datum:Temp:Feuchte:Taupunkt:
Aussen-T/F 51 31-03-2014 04:10:00 7.9 C 84 % 5.37 C
52 31-03-2014 04:15:00 7.8 C 85 % 5.44 C
53 31-03-2014 04:20:00 7.7 C 85 % 5.34 C
54 31-03-2014 04:25:00 7.6 C 85 % 5.24 C
55 31-03-2014 04:30:00 7.4 C 86 % 5.22 C
56 31-03-2014 04:35:00 7.3 C 86 % 5.12 C
57 31-03-2014 04:40:00 7.2 C 87 % 5.19 C
58 31-03-2014 04:45:00 7.2 C 87 % 5.19 C
59 31-03-2014 04:50:00 7.1 C 87 % 5.09 C
60 31-03-2014 04:55:00 7 C 88 % 5.15 C
61 31-03-2014 05:00:00 7 C 88 % 5.15 C
62 31-03-2014 05:05:00 7 C 88 % 5.15 C
63 31-03-2014 05:10:00 7.1 C 88 % 5.25 C
64 31-03-2014 05:15:00 7.1 C 88 % 5.25 C
65 31-03-2014 05:20:00 7.1 C 88 % 5.25 C
66 31-03-2014 05:25:00 7.2 C 88 % 5.35 C
67 31-03-2014 05:30:00 7.1 C 87 % 5.09 C
68 31-03-2014 05:35:00 7.1 C 87 % 5.09 C
69 31-03-2014 05:40:00 7.1 C 88 % 5.25 C
70 31-03-2014 05:45:00 7.1 C 87 % 5.09 C
71 31-03-2014 05:50:00 7.1 C 88 % 5.25 C
72 31-03-2014 05:55:00 7.1 C 88 % 5.25 C
73 31-03-2014 06:00:00 7.1 C 87 % 5.09 C
74 31-03-2014 06:05:00 7 C 87 % 4.99 C
75 31-03-2014 06:10:00 6.9 C 88 % 5.05 C
Sensor: Nr:Datum:Temp:Feuchte:Taupunkt:
Aussen-T/F 76 31-03-2014 06:15:00 6.9 C 88 % 5.05 C
77 31-03-2014 06:20:00 6.8 C 88 % 4.96 C
78 31-03-2014 06:25:00 6.7 C 88 % 4.86 C
79 31-03-2014 06:30:00 6.7 C 88 % 4.86 C
80 31-03-2014 06:35:00 6.6 C 88 % 4.76 C
81 31-03-2014 06:40:00 6.6 C 89 % 4.92 C
82 31-03-2014 06:45:00 6.5 C 89 % 4.82 C
83 31-03-2014 06:50:00 6.4 C 89 % 4.72 C
84 31-03-2014 06:55:00 6.4 C 89 % 4.72 C
85 31-03-2014 07:00:00 6.3 C 89 % 4.62 C
86 31-03-2014 07:05:00 6.3 C 89 % 4.62 C
87 31-03-2014 07:10:00 6.2 C 89 % 4.53 C
88 31-03-2014 07:15:00 6.2 C 89 % 4.53 C
89 31-03-2014 07:20:00 6.2 C 90 % 4.69 C
90 31-03-2014 07:25:00 6.2 C 90 % 4.69 C
91 31-03-2014 07:30:00 6.2 C 90 % 4.69 C
92 31-03-2014 07:35:00 6.2 C 90 % 4.69 C
93 31-03-2014 07:40:00 6.2 C 90 % 4.69 C
94 31-03-2014 07:45:00 6.2 C 91 % 4.84 C
95 31-03-2014 07:50:00 6.2 C 91 % 4.84 C
96 31-03-2014 07:55:00 6.3 C 91 % 4.94 C
97 31-03-2014 08:00:00 6.3 C 91 % 4.94 C
98 31-03-2014 08:05:00 6.3 C 91 % 4.94 C
99 31-03-2014 08:10:00 6.4 C 91 % 5.04 C
100 31-03-2014 08:15:00 6.4 C 91 % 5.04 C
Sensor: Nr:Datum:Temp:Feuchte:Taupunkt:
Aussen-T/F 101 31-03-2014 08:20:00 6.5 C 91 % 5.14 C
102 31-03-2014 08:25:00 6.6 C 91 % 5.24 C
103 31-03-2014 08:30:00 6.6 C 91 % 5.24 C
104 31-03-2014 08:35:00 6.7 C 91 % 5.34 C
105 31-03-2014 08:40:00 6.8 C 91 % 5.44 C
106 31-03-2014 08:45:00 6.8 C 90 % 5.28 C
107 31-03-2014 08:50:00 6.9 C 90 % 5.38 C
108 31-03-2014 08:55:00 6.9 C 90 % 5.38 C
109 31-03-2014 09:00:00 7.1 C 90 % 5.57 C
110 31-03-2014 09:05:00 7.2 C 90 % 5.67 C
111 31-03-2014 09:10:00 7.3 C 90 % 5.77 C
112 31-03-2014 09:15:00 7.4 C 89 % 5.71 C
113 31-03-2014 09:20:00 7.6 C 89 % 5.91 C
114 31-03-2014 09:25:00 7.7 C 89 % 6 C
115 31-03-2014 09:30:00 7.8 C 88 % 5.94 C
116 31-03-2014 09:35:00 7.9 C 87 % 5.87 C
117 31-03-2014 09:40:00 8.1 C 86 % 5.9 C
118 31-03-2014 09:45:00 8.2 C 86 % 6 C
119 31-03-2014 09:50:00 8.3 C 86 % 6.1 C
120 31-03-2014 09:55:00 8.3 C 86 % 6.1 C
121 31-03-2014 10:00:00 8.4 C 86 % 6.2 C
122 31-03-2014 10:05:00 8.6 C 85 % 6.23 C
123 31-03-2014 10:10:00 8.8 C 85 % 6.42 C
124 31-03-2014 10:15:00 8.9 C 84 % 6.35 C
125 31-03-2014 10:20:00 9.1 C 83 % 6.37 C
Sensor: Nr:Datum:Temp:Feuchte:Taupunkt:
Aussen-T/F 126 31-03-2014 10:25:00 9.2 C 83 % 6.47 C
127 31-03-2014 10:30:00 9.4 C 83 % 6.66 C
128 31-03-2014 10:35:00 9.6 C 83 % 6.86 C
129 31-03-2014 10:40:00 9.7 C 82 % 6.78 C
130 31-03-2014 10:45:00 9.8 C 81 % 6.7 C
131 31-03-2014 10:50:00 9.9 C 81 % 6.8 C
132 31-03-2014 10:55:00 10.1 C 79 % 6.63 C
133 31-03-2014 11:00:00 10.3 C 80 % 7.01 C
134 31-03-2014 11:05:00 10.4 C 79 % 6.92 C
135 31-03-2014 11:10:00 10.6 C 79 % 7.11 C
136 31-03-2014 11:15:00 10.8 C 79 % 7.31 C
137 31-03-2014 11:20:00 11 C 78 % 7.32 C
138 31-03-2014 11:25:00 11.2 C 78 % 7.51 C
139 31-03-2014 11:30:00 11.4 C 76 % 7.33 C
140 31-03-2014 11:35:00 11.7 C 76 % 7.62 C
141 31-03-2014 11:40:00 11.9 C 75 % 7.62 C
142 31-03-2014 11:45:00 12.2 C 77 % 8.29 C
143 31-03-2014 11:50:00 12.5 C 73 % 7.8 C
144 31-03-2014 11:55:00 12.8 C 72 % 7.88 C
145 31-03-2014 12:00:00 13.1 C 71 % 7.97 C
146 31-03-2014 12:05:00 13.3 C 70 % 7.95 C
147 31-03-2014 12:10:00 13.6 C 69 % 8.03 C
148 31-03-2014 12:15:00 13.8 C 68 % 8 C
149 31-03-2014 12:20:00 14.2 C 70 % 8.81 C
150 31-03-2014 12:25:00 14.4 C 67 % 8.36 C
Sensor: Nr:Datum:Temp:Feuchte:Taupunkt:
Aussen-T/F 151 31-03-2014 12:30:00 14.7 C 66 % 8.42 C
152 31-03-2014 12:35:00 15.1 C 66 % 8.8 C
153 31-03-2014 12:40:00 15.4 C 64 % 8.63 C
154 31-03-2014 12:45:00 15.7 C 64 % 8.92 C
155 31-03-2014 12:50:00 16.1 C 64 % 9.29 C
156 31-03-2014 12:55:00 16.4 C 63 % 9.35 C
157 31-03-2014 13:00:00 16.7 C 61 % 9.15 C
158 31-03-2014 13:05:00 17 C 61 % 9.43 C
159 31-03-2014 13:10:00 17.3 C 58 % 8.97 C
160 31-03-2014 13:15:00 17.6 C 57 % 8.99 C
161 31-03-2014 13:20:00 17.8 C 57 % 9.18 C
162 31-03-2014 13:25:00 17.9 C 55 % 8.74 C
163 31-03-2014 13:30:00 18.1 C 52 % 8.1 C
164 31-03-2014 13:35:00 18.3 C 55 % 9.11 C
165 31-03-2014 13:40:00 18.4 C 52 % 8.38 C
166 31-03-2014 13:45:00 18.6 C 53 % 8.84 C
167 31-03-2014 13:50:00 18.7 C 52 % 8.65 C
168 31-03-2014 13:55:00 18.8 C 53 % 9.03 C
169 31-03-2014 14:00:00 18.9 C 53 % 9.12 C
170 31-03-2014 14:05:00 19.1 C 49 % 8.15 C
171 31-03-2014 14:10:00 19.3 C 52 % 9.21 C
172 31-03-2014 14:15:00 19.8 C 49 % 8.79 C
173 31-03-2014 14:20:00 20.1 C 50 % 9.36 C
174 31-03-2014 14:25:00 20.3 C 43 % 7.32 C
175 31-03-2014 14:30:00 20.5 C 34 % 4.12 C
Sensor: Nr:Datum:Temp:Feuchte:Taupunkt:
Aussen-T/F 176 31-03-2014 14:35:00 20.8 C 35 % 4.79 C
177 31-03-2014 14:40:00 20.9 C 36 % 5.28 C
178 31-03-2014 14:45:00 21 C 29 % 2.31 C
179 31-03-2014 14:50:00 21.1 C 35 % 5.06 C
180 31-03-2014 14:55:00 21.3 C 29 % 2.56 C
181 31-03-2014 15:00:00 21.6 C 22 % -1 C
182 31-03-2014 15:05:00 21.6 C 23 % -0.4 C
183 31-03-2014 15:10:00 21.6 C 25 % 0.75 C
184 31-03-2014 15:15:00 21.7 C 23 % -0.31 C
185 31-03-2014 15:20:00 21.8 C 22 % -0.84 C
186 31-03-2014 15:25:00 21.9 C 21 % -1.39 C
187 31-03-2014 15:30:00 22.1 C 25 % 1.17 C
188 31-03-2014 15:35:00 22.3 C 24 % 0.78 C
189 31-03-2014 15:40:00 22.6 C 26 % 2.14 C
190 31-03-2014 15:45:00 22.8 C 27 % 2.84 C
191 31-03-2014 15:50:00 22.8 C 28 % 3.36 C
192 31-03-2014 15:55:00 22.9 C 30 % 4.42 C
193 31-03-2014 16:00:00 23 C 26 % 2.48 C
194 31-03-2014 16:05:00 22.9 C 27 % 2.93 C
195 31-03-2014 16:10:00 22.9 C 26 % 2.4 C
196 31-03-2014 16:15:00 22.9 C 28 % 3.44 C
197 31-03-2014 16:20:00 22.8 C 29 % 3.85 C
198 31-03-2014 16:25:00 22.8 C 27 % 2.84 C
199 31-03-2014 16:30:00 22.8 C 29 % 3.85 C
200 31-03-2014 16:35:00 22.9 C 29 % 3.94 C
Sensor: Nr:Datum:Temp:Feuchte:Taupunkt:
Aussen-T/F 201 31-03-2014 16:40:00 23 C 29 % 4.03 C
202 31-03-2014 16:45:00 23.1 C 31 % 5.06 C
203 31-03-2014 16:50:00 23.1 C 30 % 4.59 C
204 31-03-2014 16:55:00 23.2 C 28 % 3.7 C
205 31-03-2014 17:00:00 23.1 C 28 % 3.61 C
206 31-03-2014 17:05:00 23 C 29 % 4.03 C
207 31-03-2014 17:10:00 22.9 C 29 % 3.94 C
208 31-03-2014 17:15:00 23 C 29 % 4.03 C
209 31-03-2014 17:20:00 23.1 C 29 % 4.11 C
210 31-03-2014 17:25:00 23.1 C 31 % 5.06 C
211 31-03-2014 17:30:00 23.1 C 27 % 3.1 C
212 31-03-2014 17:35:00 22.9 C 29 % 3.94 C
213 31-03-2014 17:40:00 22.9 C 27 % 2.93 C
214 31-03-2014 17:45:00 22.8 C 27 % 2.84 C
215 31-03-2014 17:50:00 22.7 C 27 % 2.76 C
216 31-03-2014 17:55:00 22.7 C 28 % 3.27 C
217 31-03-2014 18:00:00 22.6 C 26 % 2.14 C
218 31-03-2014 18:05:00 22.6 C 25 % 1.6 C
219 31-03-2014 18:10:00 22.4 C 24 % 0.86 C
220 31-03-2014 18:15:00 22.4 C 30 % 3.99 C
221 31-03-2014 18:20:00 22.3 C 32 % 4.82 C
222 31-03-2014 18:25:00 22.1 C 26 % 1.72 C
223 31-03-2014 18:30:00 21.8 C 31 % 3.94 C
224 31-03-2014 18:35:00 21.3 C 37 % 6.03 C
225 31-03-2014 18:40:00 20.6 C 40 % 6.54 C
Sensor: Nr:Datum:Temp:Feuchte:Taupunkt:
Aussen-T/F 226 31-03-2014 18:45:00 20.1 C 39 % 5.73 C
227 31-03-2014 18:50:00 19.7 C 41 % 6.09 C
228 31-03-2014 18:55:00 19.4 C 41 % 5.82 C
229 31-03-2014 19:00:00 19.2 C 42 % 5.99 C
230 31-03-2014 19:05:00 18.8 C 44 % 6.3 C
231 31-03-2014 19:10:00 18.4 C 42 % 5.27 C
232 31-03-2014 19:15:00 18.1 C 44 % 5.67 C
233 31-03-2014 19:20:00 17.8 C 44 % 5.4 C
234 31-03-2014 19:25:00 17.4 C 43 % 4.71 C
235 31-03-2014 19:30:00 17.2 C 44 % 4.85 C
236 31-03-2014 19:35:00 16.9 C 43 % 4.25 C
237 31-03-2014 19:40:00 16.7 C 45 % 4.72 C
238 31-03-2014 19:45:00 16.4 C 44 % 4.13 C
239 31-03-2014 19:50:00 16.2 C 45 % 4.27 C
240 31-03-2014 19:55:00 15.8 C 45 % 3.9 C
241 31-03-2014 20:00:00 15.7 C 44 % 3.5 C
242 31-03-2014 20:05:00 15.6 C 47 % 4.34 C
243 31-03-2014 20:10:00 15.5 C 46 % 3.94 C
244 31-03-2014 20:15:00 15.2 C 46 % 3.67 C
245 31-03-2014 20:20:00 15.2 C 46 % 3.67 C
246 31-03-2014 20:25:00 15.1 C 46 % 3.58 C
247 31-03-2014 20:30:00 15.1 C 47 % 3.88 C
248 31-03-2014 20:35:00 15 C 49 % 4.39 C
249 31-03-2014 20:40:00 14.9 C 48 % 4 C
250 31-03-2014 20:45:00 14.9 C 49 % 4.29 C
Sensor: Nr:Datum:Temp:Feuchte:Taupunkt:
Aussen-T/F 251 31-03-2014 20:50:00 14.8 C 51 % 4.77 C
252 31-03-2014 20:55:00 14.7 C 51 % 4.68 C
253 31-03-2014 21:00:00 14.6 C 52 % 4.87 C
254 31-03-2014 21:05:00 14.5 C 53 % 5.05 C
255 31-03-2014 21:10:00 14.4 C 57 % 6 C
256 31-03-2014 21:15:00 14.2 C 58 % 6.06 C
257 31-03-2014 21:20:00 14.1 C 61 % 6.7 C
258 31-03-2014 21:25:00 14.1 C 62 % 6.94 C
259 31-03-2014 21:30:00 14.1 C 62 % 6.94 C
260 31-03-2014 21:35:00 14 C 63 % 7.08 C
261 31-03-2014 21:40:00 13.9 C 64 % 7.21 C
262 31-03-2014 21:45:00 13.8 C 65 % 7.34 C
263 31-03-2014 21:50:00 13.7 C 65 % 7.25 C
264 31-03-2014 21:55:00 13.5 C 66 % 7.28 C
265 31-03-2014 22:00:00 13.3 C 67 % 7.31 C
266 31-03-2014 22:05:00 13.1 C 66 % 6.9 C
267 31-03-2014 22:10:00 12.9 C 68 % 7.14 C
268 31-03-2014 22:15:00 12.8 C 69 % 7.26 C
269 31-03-2014 22:20:00 12.6 C 69 % 7.07 C
270 31-03-2014 22:25:00 12.5 C 70 % 7.18 C
271 31-03-2014 22:30:00 12.4 C 70 % 7.09 C
272 31-03-2014 22:35:00 12.3 C 69 % 6.78 C
273 31-03-2014 22:40:00 12.4 C 70 % 7.09 C
274 31-03-2014 22:45:00 12.4 C 72 % 7.5 C
275 31-03-2014 22:50:00 12.4 C 73 % 7.7 C
Sensor: Nr:Datum:Temp:Feuchte:Taupunkt:
Aussen-T/F 276 31-03-2014 22:55:00 12.4 C 71 % 7.3 C
277 31-03-2014 23:00:00 12.4 C 69 % 6.88 C
278 31-03-2014 23:05:00 12.5 C 68 % 6.76 C
279 31-03-2014 23:10:00 12.5 C 68 % 6.76 C
280 31-03-2014 23:15:00 12.4 C 69 % 6.88 C
281 31-03-2014 23:20:00 12.3 C 69 % 6.78 C
282 31-03-2014 23:25:00 12.1 C 69 % 6.59 C
283 31-03-2014 23:30:00 12 C 69 % 6.5 C
284 31-03-2014 23:35:00 11.9 C 70 % 6.61 C
285 31-03-2014 23:40:00 11.7 C 72 % 6.83 C
286 31-03-2014 23:45:00 11.6 C 71 % 6.53 C
287 31-03-2014 23:50:00 11.5 C 72 % 6.63 C
288 31-03-2014 23:55:00 11.3 C 72 % 6.44 C
289 01-04-2014 00:00:00 11.2 C 72 % 6.35 C
290 01-04-2014 00:05:00 11.1 C 73 % 6.45 C
291 01-04-2014 00:10:00 11 C 76 % 6.94 C
292 01-04-2014 00:15:00 11 C 73 % 6.35 C
293 01-04-2014 00:20:00 11 C 74 % 6.55 C
294 01-04-2014 00:25:00 10.9 C 74 % 6.45 C
295 01-04-2014 00:30:00 10.8 C 74 % 6.36 C
296 01-04-2014 00:35:00 10.8 C 75 % 6.55 C
297 01-04-2014 00:40:00 10.8 C 77 % 6.94 C
298 01-04-2014 00:45:00 10.9 C 75 % 6.65 C
299 01-04-2014 00:50:00 10.9 C 74 % 6.45 C
300 01-04-2014 00:55:00 10.9 C 74 % 6.45 C
Sensor: Nr:Datum:Temp:Feuchte:Taupunkt:
Aussen-T/F 301 01-04-2014 01:00:00 10.9 C 75 % 6.65 C
302 01-04-2014 01:05:00 10.9 C 76 % 6.84 C
303 01-04-2014 01:10:00 10.8 C 75 % 6.55 C
304 01-04-2014 01:15:00 10.8 C 76 % 6.75 C
305 01-04-2014 01:20:00 10.8 C 75 % 6.55 C
306 01-04-2014 01:25:00 10.8 C 77 % 6.94 C
307 01-04-2014 01:30:00 10.8 C 75 % 6.55 C
308 01-04-2014 01:35:00 10.8 C 77 % 6.94 C
309 01-04-2014 01:40:00 10.7 C 76 % 6.65 C
310 01-04-2014 01:45:00 10.7 C 76 % 6.65 C
311 01-04-2014 01:50:00 10.7 C 76 % 6.65 C
312 01-04-2014 01:55:00 10.7 C 76 % 6.65 C
313 01-04-2014 02:00:00 10.7 C 77 % 6.84 C
314 01-04-2014 02:05:00 10.7 C 77 % 6.84 C
315 01-04-2014 02:10:00 10.7 C 77 % 6.84 C
316 01-04-2014 02:15:00 10.6 C 77 % 6.74 C
317 01-04-2014 02:20:00 10.6 C 79 % 7.11 C
318 01-04-2014 02:25:00 10.6 C 78 % 6.93 C
319 01-04-2014 02:30:00 10.6 C 78 % 6.93 C
320 01-04-2014 02:35:00 10.6 C 78 % 6.93 C
321 01-04-2014 02:40:00 10.6 C 77 % 6.74 C
322 01-04-2014 02:45:00 10.4 C 78 % 6.74 C
323 01-04-2014 02:50:00 10.2 C 78 % 6.54 C
324 01-04-2014 02:55:00 10 C 79 % 6.53 C
325 01-04-2014 03:00:00 9.8 C 79 % 6.34 C
Sensor: Nr:Datum:Temp:Feuchte:Taupunkt:
Aussen-T/F 326 01-04-2014 03:05:00 9.8 C 80 % 6.52 C
327 01-04-2014 03:10:00 9.7 C 80 % 6.42 C
328 01-04-2014 03:15:00 9.7 C 80 % 6.42 C
329 01-04-2014 03:20:00 9.7 C 80 % 6.42 C
330 01-04-2014 03:25:00 9.6 C 80 % 6.32 C
331 01-04-2014 03:30:00 9.6 C 80 % 6.32 C
332 01-04-2014 03:35:00 9.5 C 81 % 6.41 C
333 01-04-2014 03:40:00 9.4 C 81 % 6.31 C
334 01-04-2014 03:45:00 9.4 C 81 % 6.31 C
335 01-04-2014 03:50:00 9.3 C 81 % 6.21 C
336 01-04-2014 03:55:00 9.3 C 80 % 6.03 C
337 01-04-2014 04:00:00 9.3 C 81 % 6.21 C
338 01-04-2014 04:05:00 9.3 C 81 % 6.21 C
339 01-04-2014 04:10:00 9.3 C 82 % 6.39 C
340 01-04-2014 04:15:00 9.2 C 81 % 6.11 C
341 01-04-2014 04:20:00 9.2 C 81 % 6.11 C
342 01-04-2014 04:25:00 9.1 C 82 % 6.19 C
343 01-04-2014 04:30:00 9.1 C 82 % 6.19 C
344 01-04-2014 04:35:00 8.9 C 82 % 6 C
345 01-04-2014 04:40:00 8.8 C 82 % 5.9 C
346 01-04-2014 04:45:00 8.8 C 82 % 5.9 C
347 01-04-2014 04:50:00 8.8 C 82 % 5.9 C
348 01-04-2014 04:55:00 8.7 C 82 % 5.8 C
349 01-04-2014 05:00:00 8.8 C 83 % 6.08 C
350 01-04-2014 05:05:00 8.7 C 83 % 5.98 C
Sensor: Nr:Datum:Temp:Feuchte:Taupunkt:
Aussen-T/F 351 01-04-2014 05:10:00 8.7 C 83 % 5.98 C
352 01-04-2014 05:15:00 8.7 C 83 % 5.98 C
353 01-04-2014 05:20:00 8.7 C 83 % 5.98 C
354 01-04-2014 05:25:00 8.6 C 83 % 5.88 C
355 01-04-2014 05:30:00 8.5 C 83 % 5.78 C
356 01-04-2014 05:35:00 8.4 C 84 % 5.86 C
357 01-04-2014 05:40:00 8.4 C 84 % 5.86 C
358 01-04-2014 05:45:00 8.3 C 84 % 5.76 C
359 01-04-2014 05:50:00 8.3 C 84 % 5.76 C
360 01-04-2014 05:55:00 8.3 C 84 % 5.76 C
361 01-04-2014 06:00:00 8.2 C 84 % 5.66 C
362 01-04-2014 06:05:00 8.1 C 84 % 5.56 C
363 01-04-2014 06:10:00 8.1 C 84 % 5.56 C
364 01-04-2014 06:15:00 7.9 C 84 % 5.37 C
365 01-04-2014 06:20:00 7.9 C 85 % 5.54 C
366 01-04-2014 06:25:00 8 C 85 % 5.64 C
367 01-04-2014 06:30:00 8 C 86 % 5.81 C
368 01-04-2014 06:35:00 8 C 85 % 5.64 C
369 01-04-2014 06:40:00 8 C 84 % 5.47 C
370 01-04-2014 06:45:00 8 C 84 % 5.47 C
371 01-04-2014 06:50:00 8 C 85 % 5.64 C
372 01-04-2014 06:55:00 7.9 C 85 % 5.54 C
373 01-04-2014 07:00:00 7.8 C 85 % 5.44 C
374 01-04-2014 07:05:00 7.7 C 85 % 5.34 C
375 01-04-2014 07:10:00 7.6 C 85 % 5.24 C
Sensor: Nr:Datum:Temp:Feuchte:Taupunkt:
Aussen-T/F 376 01-04-2014 07:15:00 7.6 C 85 % 5.24 C
377 01-04-2014 07:20:00 7.6 C 86 % 5.41 C
378 01-04-2014 07:25:00 7.6 C 87 % 5.58 C
379 01-04-2014 07:30:00 7.6 C 87 % 5.58 C
380 01-04-2014 07:35:00 7.5 C 87 % 5.48 C
381 01-04-2014 07:40:00 7.6 C 87 % 5.58 C
382 01-04-2014 07:45:00 7.7 C 87 % 5.68 C
383 01-04-2014 07:50:00 7.8 C 88 % 5.94 C
384 01-04-2014 07:55:00 7.8 C 88 % 5.94 C
385 01-04-2014 08:00:00 7.9 C 88 % 6.04 C
386 01-04-2014 08:05:00 7.9 C 88 % 6.04 C
387 01-04-2014 08:10:00 8.1 C 87 % 6.07 C
388 01-04-2014 08:15:00 8.1 C 87 % 6.07 C
389 01-04-2014 08:20:00 8.2 C 88 % 6.33 C
390 01-04-2014 08:25:00 8.3 C 87 % 6.27 C
391 01-04-2014 08:30:00 8.4 C 87 % 6.37 C
392 01-04-2014 08:35:00 8.5 C 87 % 6.46 C
393 01-04-2014 08:40:00 8.7 C 87 % 6.66 C
394 01-04-2014 08:45:00 8.8 C 86 % 6.59 C
395 01-04-2014 08:50:00 8.8 C 86 % 6.59 C
396 01-04-2014 08:55:00 8.9 C 86 % 6.69 C
397 01-04-2014 09:00:00 9.1 C 86 % 6.89 C
398 01-04-2014 09:05:00 9.2 C 86 % 6.98 C
399 01-04-2014 09:10:00 9.3 C 86 % 7.08 C
400 01-04-2014 09:15:00 9.4 C 85 % 7.01 C
Sensor: Nr:Datum:Temp:Feuchte:Taupunkt:
Aussen-T/F 401 01-04-2014 09:20:00 9.6 C 82 % 6.68 C
402 01-04-2014 09:25:00 9.7 C 81 % 6.6 C
403 01-04-2014 09:30:00 9.9 C 81 % 6.8 C
404 01-04-2014 09:35:00 10.1 C 82 % 7.17 C
405 01-04-2014 09:40:00 10.2 C 82 % 7.27 C
406 01-04-2014 09:45:00 10.2 C 81 % 7.09 C
407 01-04-2014 09:50:00 10.4 C 81 % 7.28 C
408 01-04-2014 09:55:00 10.5 C 81 % 7.38 C
409 01-04-2014 10:00:00 10.7 C 81 % 7.58 C
410 01-04-2014 10:05:00 10.8 C 82 % 7.85 C
411 01-04-2014 10:10:00 11 C 80 % 7.69 C
412 01-04-2014 10:15:00 11.2 C 79 % 7.7 C
413 01-04-2014 10:20:00 11.3 C 78 % 7.61 C
414 01-04-2014 10:25:00 11.5 C 77 % 7.61 C
415 01-04-2014 10:30:00 11.7 C 77 % 7.81 C
416 01-04-2014 10:35:00 11.8 C 75 % 7.52 C
417 01-04-2014 10:40:00 12 C 76 % 7.91 C
418 01-04-2014 10:45:00 12.2 C 75 % 7.91 C
419 01-04-2014 10:50:00 12.4 C 74 % 7.9 C
420 01-04-2014 10:55:00 12.6 C 73 % 7.89 C
421 01-04-2014 11:00:00 12.7 C 72 % 7.79 C
422 01-04-2014 11:05:00 12.9 C 73 % 8.18 C
423 01-04-2014 11:10:00 13.2 C 70 % 7.86 C
424 01-04-2014 11:15:00 13.4 C 71 % 8.26 C
425 01-04-2014 11:20:00 13.7 C 72 % 8.75 C
Sensor: Nr:Datum:Temp:Feuchte:Taupunkt:
Aussen-T/F 426 01-04-2014 11:25:00 13.9 C 70 % 8.53 C
427 01-04-2014 11:30:00 14.2 C 68 % 8.39 C
428 01-04-2014 11:35:00 14.4 C 65 % 7.91 C
429 01-04-2014 11:40:00 14.7 C 66 % 8.42 C
430 01-04-2014 11:45:00 15.1 C 66 % 8.8 C
431 01-04-2014 11:50:00 15.3 C 63 % 8.31 C
432 01-04-2014 11:55:00 15.6 C 62 % 8.35 C
433 01-04-2014 12:00:00 15.8 C 61 % 8.3 C
434 01-04-2014 12:05:00 16.1 C 60 % 8.34 C
435 01-04-2014 12:10:00 16.4 C 59 % 8.38 C
436 01-04-2014 12:15:00 16.7 C 57 % 8.15 C
437 01-04-2014 12:20:00 16.9 C 59 % 8.84 C
438 01-04-2014 12:25:00 17.2 C 58 % 8.87 C
439 01-04-2014 12:30:00 17.5 C 54 % 8.1 C
440 01-04-2014 12:35:00 17.8 C 53 % 8.1 C
441 01-04-2014 12:40:00 18.1 C 54 % 8.65 C
442 01-04-2014 12:45:00 18.3 C 53 % 8.56 C
443 01-04-2014 12:50:00 18.7 C 52 % 8.65 C
444 01-04-2014 12:55:00 18.9 C 54 % 9.4 C
445 01-04-2014 13:00:00 19.4 C 53 % 9.58 C
446 01-04-2014 13:05:00 19.7 C 53 % 9.86 C
447 01-04-2014 13:10:00 20.3 C 53 % 10.41 C
448 01-04-2014 13:15:00 20.8 C 49 % 9.7 C
449 01-04-2014 13:20:00 21 C 44 % 8.29 C
450 01-04-2014 13:25:00 21.2 C 45 % 8.8 C
Sensor: Nr:Datum:Temp:Feuchte:Taupunkt:
Aussen-T/F 451 01-04-2014 13:30:00 21.3 C 45 % 8.89 C
452 01-04-2014 13:35:00 21.5 C 43 % 8.4 C
453 01-04-2014 13:40:00 21.6 C 43 % 8.49 C
454 01-04-2014 13:45:00 21.7 C 45 % 9.26 C
455 01-04-2014 13:50:00 22 C 45 % 9.53 C
456 01-04-2014 13:55:00 22.3 C 43 % 9.13 C
457 01-04-2014 14:00:00 22.4 C 38 % 7.4 C
458 01-04-2014 14:05:00 22.3 C 40 % 8.06 C
459 01-04-2014 14:10:00 22.3 C 38 % 7.31 C
460 01-04-2014 14:15:00 22.1 C 37 % 6.74 C
461 01-04-2014 14:20:00 22 C 43 % 8.85 C
462 01-04-2014 14:25:00 22.1 C 40 % 7.88 C
463 01-04-2014 14:30:00 22.2 C 40 % 7.97 C
464 01-04-2014 14:35:00 22.1 C 40 % 7.88 C
465 01-04-2014 14:40:00 21.9 C 40 % 7.7 C
466 01-04-2014 14:45:00 21.9 C 41 % 8.06 C
467 01-04-2014 14:50:00 22 C 40 % 7.79 C
468 01-04-2014 14:55:00 21.9 C 41 % 8.06 C
469 01-04-2014 15:00:00 22 C 39 % 7.42 C
470 01-04-2014 15:05:00 22 C 39 % 7.42 C
471 01-04-2014 15:10:00 21.8 C 39 % 7.24 C
472 01-04-2014 15:15:00 21.8 C 38 % 6.86 C
473 01-04-2014 15:20:00 21.8 C 38 % 6.86 C
474 01-04-2014 15:25:00 21.8 C 38 % 6.86 C
475 01-04-2014 15:30:00 21.8 C 38 % 6.86 C
Sensor: Nr:Datum:Temp:Feuchte:Taupunkt:
Aussen-T/F 476 01-04-2014 15:35:00 21.8 C 38 % 6.86 C
477 01-04-2014 15:40:00 21.8 C 38 % 6.86 C
478 01-04-2014 15:45:00 21.8 C 38 % 6.86 C
479 01-04-2014 15:50:00 22.5 C 39 % 7.86 C
480 01-04-2014 15:55:00 22.6 C 39 % 7.95 C
481 01-04-2014 16:00:00 22.8 C 40 % 8.5 C
482 01-04-2014 16:05:00 22.9 C 38 % 7.84 C
483 01-04-2014 16:10:00 23.1 C 34 % 6.39 C
484 01-04-2014 16:15:00 23.1 C 36 % 7.23 C
485 01-04-2014 16:20:00 23.1 C 36 % 7.23 C
486 01-04-2014 16:25:00 23.1 C 34 % 6.39 C
487 01-04-2014 16:30:00 23.2 C 33 % 6.05 C
488 01-04-2014 16:35:00 23.1 C 34 % 6.39 C
489 01-04-2014 16:40:00 23.1 C 34 % 6.39 C
490 01-04-2014 16:45:00 23.1 C 34 % 6.39 C
491 01-04-2014 16:50:00 23.1 C 34 % 6.39 C
492 01-04-2014 16:55:00 23.1 C 34 % 6.39 C
493 01-04-2014 17:00:00 22.8 C 34 % 6.13 C
494 01-04-2014 17:05:00 22.7 C 34 % 6.04 C
495 01-04-2014 17:10:00 22.7 C 34 % 6.04 C
496 01-04-2014 17:15:00 22.8 C 34 % 6.13 C
497 01-04-2014 17:20:00 22.8 C 34 % 6.13 C
498 01-04-2014 19:25:00 18.4 C 55 % 9.2 C
499 01-04-2014 19:30:00 18.3 C 56 % 9.38 C
500 01-04-2014 19:35:00 18.1 C 56 % 9.19 C
Sensor: Nr:Datum:Temp:Feuchte:Taupunkt:
Aussen-T/F 501 01-04-2014 19:40:00 17.8 C 57 % 9.18 C
502 01-04-2014 19:45:00 17.6 C 57 % 8.99 C
503 01-04-2014 19:50:00 17.4 C 59 % 9.31 C
504 01-04-2014 19:55:00 17.3 C 58 % 8.97 C
505 01-04-2014 20:00:00 17.3 C 59 % 9.22 C
506 01-04-2014 20:05:00 17.2 C 60 % 9.37 C
507 01-04-2014 20:10:00 17.2 C 59 % 9.13 C
508 01-04-2014 20:15:00 17.2 C 59 % 9.13 C
509 01-04-2014 20:20:00 17.1 C 60 % 9.28 C
510 01-04-2014 20:25:00 17 C 60 % 9.19 C
511 01-04-2014 20:30:00 16.9 C 61 % 9.34 C
512 01-04-2014 20:35:00 16.9 C 60 % 9.09 C
513 01-04-2014 20:40:00 16.8 C 60 % 9 C
514 01-04-2014 20:45:00 16.8 C 61 % 9.24 C
515 01-04-2014 20:50:00 16.8 C 61 % 9.24 C
516 01-04-2014 20:55:00 16.8 C 61 % 9.24 C
517 01-04-2014 21:10:00 15.9 C 100 % 15.9 C
518 01-04-2014 21:15:00 15.7 C 100 % 15.7 C
519 01-04-2014 21:20:00 15.6 C 62 % 8.35 C
520 01-04-2014 21:25:00 15.4 C 62 % 8.16 C
521 01-04-2014 21:30:00 15.3 C 63 % 8.31 C
522 01-04-2014 21:35:00 15.2 C 63 % 8.21 C
523 01-04-2014 21:40:00 15.1 C 62 % 7.88 C
524 01-04-2014 21:45:00 15 C 62 % 7.79 C
525 01-04-2014 21:50:00 14.9 C 62 % 7.69 C
Sensor: Nr:Datum:Temp:Feuchte:Taupunkt:
Aussen-T/F 526 01-04-2014 21:55:00 14.9 C 65 % 8.39 C
527 01-04-2014 22:00:00 14.9 C 63 % 7.93 C
528 01-04-2014 22:05:00 14.6 C 65 % 8.1 C
529 01-04-2014 22:10:00 14.3 C 66 % 8.04 C
530 01-04-2014 22:15:00 14.2 C 66 % 7.95 C
531 01-04-2014 22:20:00 14.1 C 66 % 7.85 C
532 01-04-2014 22:25:00 13.8 C 67 % 7.79 C
533 01-04-2014 22:30:00 13.8 C 67 % 7.79 C
534 01-04-2014 22:35:00 13.7 C 67 % 7.69 C
535 01-04-2014 22:40:00 13.6 C 69 % 8.03 C
536 01-04-2014 22:45:00 13.4 C 70 % 8.05 C
537 01-04-2014 22:50:00 13.3 C 69 % 7.74 C
538 01-04-2014 22:55:00 13.3 C 67 % 7.31 C
539 01-04-2014 23:00:00 13.3 C 68 % 7.53 C
540 01-04-2014 23:05:00 13.2 C 67 % 7.21 C
541 01-04-2014 23:10:00 13.2 C 68 % 7.43 C
542 01-04-2014 23:15:00 13.1 C 71 % 7.97 C
543 01-04-2014 23:20:00 12.9 C 71 % 7.78 C
544 01-04-2014 23:25:00 12.8 C 70 % 7.47 C
545 01-04-2014 23:30:00 12.6 C 71 % 7.49 C
546 01-04-2014 23:35:00 12.4 C 71 % 7.3 C
547 01-04-2014 23:40:00 12.4 C 73 % 7.7 C
548 01-04-2014 23:45:00 12.3 C 73 % 7.61 C
549 01-04-2014 23:50:00 12.2 C 72 % 7.31 C
550 01-04-2014 23:55:00 12.1 C 72 % 7.21 C
Sensor: Nr:Datum:Temp:Feuchte:Taupunkt:
Aussen-T/F 551 02-04-2014 00:00:00 12 C 72 % 7.12 C
552 02-04-2014 00:05:00 11.9 C 73 % 7.22 C
553 02-04-2014 00:10:00 11.8 C 72 % 6.92 C
554 02-04-2014 00:15:00 11.7 C 72 % 6.83 C
555 02-04-2014 00:20:00 11.6 C 73 % 6.93 C
556 02-04-2014 00:25:00 11.5 C 73 % 6.84 C
557 02-04-2014 00:30:00 11.4 C 73 % 6.74 C
558 02-04-2014 00:35:00 11.4 C 73 % 6.74 C
559 02-04-2014 00:40:00 11.3 C 74 % 6.84 C
560 02-04-2014 00:45:00 11.3 C 75 % 7.04 C
561 02-04-2014 00:50:00 11.2 C 75 % 6.94 C
562 02-04-2014 00:55:00 11.1 C 76 % 7.04 C
563 02-04-2014 01:00:00 10.9 C 75 % 6.65 C
564 02-04-2014 01:05:00 10.9 C 75 % 6.65 C
565 02-04-2014 01:10:00 10.9 C 75 % 6.65 C
566 02-04-2014 01:15:00 10.9 C 76 % 6.84 C
567 02-04-2014 01:20:00 10.9 C 76 % 6.84 C
568 02-04-2014 01:25:00 10.9 C 76 % 6.84 C
569 02-04-2014 01:30:00 10.9 C 76 % 6.84 C
570 02-04-2014 01:35:00 10.8 C 76 % 6.75 C
571 02-04-2014 01:40:00 10.5 C 78 % 6.83 C
572 02-04-2014 01:45:00 10.2 C 79 % 6.73 C
573 02-04-2014 01:50:00 10 C 78 % 6.35 C
574 02-04-2014 01:55:00 9.8 C 78 % 6.15 C
575 02-04-2014 02:00:00 9.8 C 80 % 6.52 C
Sensor: Nr:Datum:Temp:Feuchte:Taupunkt:
Aussen-T/F 576 02-04-2014 02:05:00 9.7 C 80 % 6.42 C
577 02-04-2014 02:10:00 9.6 C 80 % 6.32 C
578 02-04-2014 02:15:00 9.4 C 80 % 6.13 C
579 02-04-2014 02:20:00 9.4 C 81 % 6.31 C
580 02-04-2014 02:25:00 9.3 C 81 % 6.21 C
581 02-04-2014 02:30:00 9.4 C 81 % 6.31 C
582 02-04-2014 02:35:00 9.3 C 81 % 6.21 C
583 02-04-2014 02:40:00 9.3 C 81 % 6.21 C
584 02-04-2014 02:45:00 9.3 C 81 % 6.21 C
585 02-04-2014 02:50:00 9.3 C 81 % 6.21 C
586 02-04-2014 02:55:00 9.2 C 81 % 6.11 C
587 02-04-2014 03:00:00 9.1 C 81 % 6.02 C
588 02-04-2014 03:05:00 9.1 C 81 % 6.02 C
589 02-04-2014 03:10:00 9 C 81 % 5.92 C
590 02-04-2014 03:15:00 8.9 C 82 % 6 C
591 02-04-2014 03:20:00 8.9 C 82 % 6 C
592 02-04-2014 03:25:00 8.9 C 83 % 6.17 C
593 02-04-2014 03:30:00 8.8 C 83 % 6.08 C
594 02-04-2014 03:35:00 8.7 C 83 % 5.98 C
595 02-04-2014 03:40:00 8.6 C 83 % 5.88 C
596 02-04-2014 03:45:00 8.4 C 83 % 5.69 C
597 02-04-2014 03:50:00 8.4 C 84 % 5.86 C
598 02-04-2014 03:55:00 8.3 C 84 % 5.76 C
599 02-04-2014 04:00:00 8.2 C 85 % 5.83 C
600 02-04-2014 04:05:00 8.2 C 85 % 5.83 C
Sensor: Nr:Datum:Temp:Feuchte:Taupunkt:
Aussen-T/F 601 02-04-2014 04:10:00 8.1 C 85 % 5.73 C
602 02-04-2014 04:15:00 8 C 85 % 5.64 C
603 02-04-2014 04:20:00 8 C 86 % 5.81 C
604 02-04-2014 04:25:00 8 C 85 % 5.64 C
605 02-04-2014 04:30:00 7.9 C 85 % 5.54 C
606 02-04-2014 04:35:00 7.9 C 86 % 5.71 C
607 02-04-2014 04:40:00 7.9 C 86 % 5.71 C
608 02-04-2014 04:45:00 7.9 C 86 % 5.71 C
609 02-04-2014 04:50:00 7.8 C 86 % 5.61 C
610 02-04-2014 04:55:00 7.7 C 86 % 5.51 C
611 02-04-2014 05:00:00 7.7 C 86 % 5.51 C
612 02-04-2014 05:05:00 7.6 C 86 % 5.41 C
613 02-04-2014 05:10:00 7.5 C 87 % 5.48 C
614 02-04-2014 05:15:00 7.4 C 87 % 5.38 C
615 02-04-2014 05:20:00 7.4 C 87 % 5.38 C
616 02-04-2014 05:25:00 7.4 C 87 % 5.38 C
617 02-04-2014 05:30:00 7.3 C 87 % 5.28 C
618 02-04-2014 05:35:00 7.2 C 88 % 5.35 C
619 02-04-2014 05:40:00 7.1 C 88 % 5.25 C
620 02-04-2014 05:45:00 7.1 C 88 % 5.25 C
621 02-04-2014 05:50:00 6.9 C 88 % 5.05 C
622 02-04-2014 05:55:00 6.8 C 89 % 5.12 C
623 02-04-2014 06:00:00 6.8 C 89 % 5.12 C
624 02-04-2014 06:05:00 6.7 C 89 % 5.02 C
625 02-04-2014 06:10:00 6.7 C 89 % 5.02 C
Sensor: Nr:Datum:Temp:Feuchte:Taupunkt:
Aussen-T/F 626 02-04-2014 06:15:00 6.6 C 90 % 5.08 C
627 02-04-2014 06:20:00 6.6 C 89 % 4.92 C
628 02-04-2014 06:25:00 6.5 C 89 % 4.82 C
629 02-04-2014 06:30:00 6.4 C 90 % 4.88 C
630 02-04-2014 06:35:00 6.4 C 90 % 4.88 C
631 02-04-2014 06:40:00 6.5 C 90 % 4.98 C
632 02-04-2014 06:45:00 6.6 C 91 % 5.24 C
633 02-04-2014 06:50:00 6.7 C 91 % 5.34 C
634 02-04-2014 06:55:00 6.8 C 90 % 5.28 C
635 02-04-2014 07:00:00 6.8 C 90 % 5.28 C
636 02-04-2014 07:05:00 6.8 C 90 % 5.28 C
637 02-04-2014 07:10:00 6.8 C 90 % 5.28 C
638 02-04-2014 07:15:00 6.8 C 90 % 5.28 C
639 02-04-2014 07:20:00 6.8 C 90 % 5.28 C
640 02-04-2014 07:25:00 6.8 C 90 % 5.28 C
641 02-04-2014 07:30:00 6.8 C 90 % 5.28 C
642 02-04-2014 07:35:00 6.8 C 90 % 5.28 C
643 02-04-2014 07:40:00 6.8 C 90 % 5.28 C
644 02-04-2014 07:45:00 6.8 C 90 % 5.28 C
645 02-04-2014 07:50:00 6.7 C 90 % 5.18 C
646 02-04-2014 07:55:00 6.7 C 90 % 5.18 C
647 02-04-2014 08:00:00 6.7 C 91 % 5.34 C
648 02-04-2014 08:05:00 6.7 C 91 % 5.34 C
649 02-04-2014 08:10:00 6.7 C 91 % 5.34 C
650 02-04-2014 08:15:00 6.8 C 91 % 5.44 C
Sensor: Nr:Datum:Temp:Feuchte:Taupunkt:
Aussen-T/F 651 02-04-2014 08:20:00 6.9 C 91 % 5.54 C
652 02-04-2014 08:25:00 6.9 C 90 % 5.38 C
653 02-04-2014 08:30:00 7.1 C 90 % 5.57 C
654 02-04-2014 08:35:00 7.2 C 90 % 5.67 C
655 02-04-2014 08:40:00 7.2 C 90 % 5.67 C
656 02-04-2014 08:45:00 7.3 C 89 % 5.61 C
657 02-04-2014 08:50:00 7.3 C 90 % 5.77 C
658 02-04-2014 08:55:00 7.3 C 90 % 5.77 C
659 02-04-2014 09:00:00 7.4 C 89 % 5.71 C
660 02-04-2014 09:05:00 7.5 C 90 % 5.97 C
661 02-04-2014 09:10:00 7.6 C 90 % 6.07 C
662 02-04-2014 09:15:00 7.7 C 90 % 6.17 C
663 02-04-2014 09:20:00 7.8 C 90 % 6.27 C
664 02-04-2014 09:25:00 7.9 C 90 % 6.36 C
665 02-04-2014 09:30:00 8.1 C 89 % 6.4 C
666 02-04-2014 09:35:00 8.2 C 89 % 6.5 C
667 02-04-2014 09:40:00 8.3 C 88 % 6.43 C
668 02-04-2014 09:45:00 8.5 C 87 % 6.46 C
669 02-04-2014 09:50:00 8.7 C 87 % 6.66 C
670 02-04-2014 09:55:00 8.8 C 87 % 6.76 C
671 02-04-2014 10:00:00 9.1 C 87 % 7.05 C
672 02-04-2014 10:05:00 9.3 C 86 % 7.08 C
673 02-04-2014 10:10:00 9.5 C 85 % 7.11 C
674 02-04-2014 10:15:00 9.8 C 84 % 7.23 C
675 02-04-2014 10:20:00 10.1 C 84 % 7.52 C
Sensor: Nr:Datum:Temp:Feuchte:Taupunkt:
Aussen-T/F 676 02-04-2014 10:25:00 10.3 C 83 % 7.54 C
677 02-04-2014 10:30:00 10.4 C 83 % 7.64 C
678 02-04-2014 10:35:00 10.7 C 83 % 7.93 C
679 02-04-2014 10:40:00 10.9 C 82 % 7.95 C
680 02-04-2014 10:45:00 11.2 C 81 % 8.06 C
681 02-04-2014 10:50:00 11.4 C 80 % 8.08 C
682 02-04-2014 10:55:00 11.8 C 78 % 8.09 C
683 02-04-2014 11:00:00 12.1 C 79 % 8.57 C
684 02-04-2014 11:05:00 12.3 C 78 % 8.58 C
685 02-04-2014 11:10:00 12.4 C 78 % 8.68 C
686 02-04-2014 11:15:00 12.6 C 77 % 8.68 C
687 02-04-2014 11:20:00 12.9 C 75 % 8.58 C
688 02-04-2014 11:25:00 13.2 C 75 % 8.87 C
689 02-04-2014 11:30:00 13.6 C 75 % 9.26 C
690 02-04-2014 11:35:00 13.9 C 74 % 9.35 C
691 02-04-2014 11:40:00 13.9 C 74 % 9.35 C
692 02-04-2014 11:45:00 14.6 C 74 % 10.02 C
693 02-04-2014 11:50:00 14.6 C 74 % 10.02 C
694 02-04-2014 11:55:00 15.4 C 68 % 9.53 C
695 02-04-2014 12:00:00 15.8 C 65 % 9.24 C
696 02-04-2014 12:05:00 16.1 C 64 % 9.29 C
697 02-04-2014 12:10:00 16.4 C 66 % 10.04 C
698 02-04-2014 12:15:00 16.7 C 63 % 9.63 C
699 02-04-2014 12:20:00 17 C 62 % 9.67 C
700 02-04-2014 12:25:00 17 C 62 % 9.67 C
Sensor: Nr:Datum:Temp:Feuchte:Taupunkt:
Aussen-T/F 701 02-04-2014 12:30:00 17 C 62 % 9.67 C
702 02-04-2014 12:35:00 17 C 62 % 9.67 C
703 02-04-2014 12:40:00 17 C 62 % 9.67 C
704 02-04-2014 12:45:00 18.7 C 56 % 9.75 C
705 02-04-2014 12:50:00 18.7 C 56 % 9.75 C
706 02-04-2014 13:15:00 20.4 C 52 % 10.22 C
707 02-04-2014 13:20:00 20.7 C 50 % 9.91 C
708 02-04-2014 13:25:00 20.7 C 50 % 9.91 C
709 02-04-2014 13:30:00 20.8 C 50 % 10 C
710 02-04-2014 13:35:00 20.8 C 50 % 10 C
711 02-04-2014 13:40:00 21.1 C 50 % 10.28 C
712 02-04-2014 13:45:00 21.3 C 44 % 8.56 C
713 02-04-2014 13:50:00 21.5 C 43 % 8.4 C
714 02-04-2014 13:55:00 21.6 C 41 % 7.79 C
715 02-04-2014 14:00:00 21.9 C 41 % 8.06 C
716 02-04-2014 14:05:00 22.1 C 42 % 8.6 C
717 02-04-2014 14:10:00 22.3 C 39 % 7.69 C
718 02-04-2014 14:15:00 22.4 C 39 % 7.78 C
719 02-04-2014 14:20:00 22.3 C 39 % 7.69 C
720 02-04-2014 14:25:00 22.3 C 39 % 7.69 C
721 02-04-2014 14:30:00 22.7 C 42 % 9.14 C
722 02-04-2014 14:35:00 22.6 C 41 % 8.69 C
723 02-04-2014 14:40:00 22.6 C 38 % 7.57 C
724 02-04-2014 14:45:00 22.5 C 41 % 8.6 C
725 02-04-2014 14:50:00 22.5 C 39 % 7.86 C
Sensor: Nr:Datum:Temp:Feuchte:Taupunkt:
Aussen-T/F 726 02-04-2014 14:55:00 22.7 C 39 % 8.04 C
727 02-04-2014 15:00:00 22.4 C 39 % 7.78 C
728 02-04-2014 15:05:00 22.4 C 41 % 8.51 C
729 02-04-2014 15:10:00 22.6 C 38 % 7.57 C
730 02-04-2014 15:15:00 22.4 C 39 % 7.78 C
731 02-04-2014 15:20:00 22.3 C 42 % 8.78 C
732 02-04-2014 15:25:00 22.6 C 40 % 8.33 C
733 02-04-2014 15:30:00 22.7 C 39 % 8.04 C
734 02-04-2014 15:35:00 22.9 C 38 % 7.84 C
735 02-04-2014 15:40:00 22.9 C 37 % 7.45 C
736 02-04-2014 15:45:00 23 C 38 % 7.93 C
737 02-04-2014 15:50:00 22.9 C 39 % 8.22 C
738 02-04-2014 15:55:00 22.9 C 38 % 7.84 C
739 02-04-2014 16:00:00 23.1 C 38 % 8.02 C
740 02-04-2014 16:05:00 23.2 C 37 % 7.71 C
741 02-04-2014 16:10:00 23.2 C 40 % 8.86 C
742 02-04-2014 16:15:00 23.2 C 36 % 7.31 C
743 02-04-2014 16:20:00 23.2 C 38 % 8.11 C
744 02-04-2014 16:25:00 23.2 C 37 % 7.71 C
745 02-04-2014 16:30:00 23.1 C 35 % 6.82 C
746 02-04-2014 16:35:00 23 C 38 % 7.93 C
747 02-04-2014 16:40:00 23.1 C 38 % 8.02 C
748 02-04-2014 16:45:00 23.2 C 36 % 7.31 C
749 02-04-2014 16:50:00 23.2 C 36 % 7.31 C
750 02-04-2014 16:55:00 23.7 C 40 % 9.31 C
Sensor: Nr:Datum:Temp:Feuchte:Taupunkt:
Aussen-T/F 751 02-04-2014 17:00:00 23.9 C 36 % 7.93 C
752 02-04-2014 17:05:00 24 C 35 % 7.61 C
753 02-04-2014 17:10:00 23.8 C 34 % 7.01 C
754 02-04-2014 17:15:00 23.6 C 36 % 7.67 C
755 02-04-2014 17:20:00 23.7 C 36 % 7.75 C
756 02-04-2014 17:25:00 23.7 C 35 % 7.34 C
757 02-04-2014 17:30:00 23.5 C 35 % 7.17 C
758 02-04-2014 17:35:00 23.2 C 35 % 6.9 C
759 02-04-2014 17:40:00 22.9 C 39 % 8.22 C
760 02-04-2014 17:45:00 22.8 C 37 % 7.36 C
761 02-04-2014 17:50:00 22.6 C 40 % 8.33 C
762 02-04-2014 17:55:00 22.7 C 38 % 7.66 C
763 02-04-2014 18:00:00 22.9 C 37 % 7.45 C
764 02-04-2014 18:05:00 23.1 C 37 % 7.63 C
765 02-04-2014 18:10:00 23.1 C 37 % 7.63 C
766 02-04-2014 18:15:00 23.1 C 38 % 8.02 C
767 02-04-2014 18:20:00 22.9 C 38 % 7.84 C
768 02-04-2014 18:25:00 22.8 C 38 % 7.75 C
769 02-04-2014 18:30:00 22.7 C 41 % 8.78 C
770 02-04-2014 18:35:00 22.4 C 39 % 7.78 C
771 02-04-2014 18:40:00 22.2 C 42 % 8.69 C
772 02-04-2014 18:45:00 22.1 C 42 % 8.6 C
773 02-04-2014 18:50:00 21.9 C 46 % 9.77 C
774 02-04-2014 18:55:00 21.3 C 49 % 10.16 C
775 02-04-2014 19:00:00 20.6 C 51 % 10.12 C
Sensor: Nr:Datum:Temp:Feuchte:Taupunkt:
Aussen-T/F 776 02-04-2014 19:05:00 20 C 53 % 10.14 C
777 02-04-2014 19:10:00 19.6 C 54 % 10.05 C
778 02-04-2014 19:15:00 19.2 C 55 % 9.95 C
779 02-04-2014 19:20:00 19 C 57 % 10.3 C
780 02-04-2014 19:25:00 18.7 C 58 % 10.28 C
781 02-04-2014 19:30:00 18.3 C 58 % 9.9 C
782 02-04-2014 19:35:00 17.9 C 59 % 9.78 C
783 02-04-2014 19:40:00 17.7 C 60 % 9.84 C
784 02-04-2014 19:45:00 17.4 C 61 % 9.81 C
785 02-04-2014 19:50:00 17.1 C 61 % 9.53 C
786 02-04-2014 19:55:00 16.9 C 62 % 9.58 C
787 02-04-2014 20:00:00 16.8 C 63 % 9.72 C
788 02-04-2014 20:05:00 16.8 C 63 % 9.72 C
789 02-04-2014 20:10:00 16.3 C 64 % 9.48 C
790 02-04-2014 20:15:00 16.1 C 65 % 9.53 C
791 02-04-2014 20:20:00 15.9 C 65 % 9.34 C
792 02-04-2014 20:25:00 15.8 C 66 % 9.47 C
793 02-04-2014 20:30:00 15.7 C 66 % 9.37 C
794 02-04-2014 20:35:00 15.7 C 67 % 9.6 C
795 02-04-2014 20:40:00 15.6 C 67 % 9.5 C
796 02-04-2014 20:45:00 15.5 C 67 % 9.41 C
797 02-04-2014 20:50:00 15.4 C 67 % 9.31 C
798 02-04-2014 20:55:00 15.3 C 68 % 9.43 C
799 02-04-2014 21:00:00 15.3 C 68 % 9.43 C
800 02-04-2014 21:05:00 15.2 C 68 % 9.34 C
Sensor: Nr:Datum:Temp:Feuchte:Taupunkt:
Aussen-T/F 801 02-04-2014 21:10:00 15.2 C 68 % 9.34 C
802 02-04-2014 21:15:00 15.2 C 69 % 9.56 C
803 02-04-2014 21:20:00 15.1 C 68 % 9.24 C
804 02-04-2014 21:25:00 15 C 69 % 9.36 C
805 02-04-2014 21:30:00 15 C 69 % 9.36 C
806 02-04-2014 21:35:00 14.9 C 70 % 9.48 C
807 02-04-2014 21:40:00 14.7 C 70 % 9.29 C
808 02-04-2014 21:45:00 14.6 C 72 % 9.61 C
809 02-04-2014 21:50:00 14.4 C 72 % 9.42 C
810 02-04-2014 21:55:00 14.3 C 73 % 9.53 C
811 02-04-2014 22:00:00 14.2 C 73 % 9.43 C
812 02-04-2014 22:05:00 14.1 C 73 % 9.34 C
813 02-04-2014 22:10:00 13.9 C 74 % 9.35 C
814 02-04-2014 22:15:00 13.8 C 75 % 9.45 C
815 02-04-2014 22:20:00 13.7 C 75 % 9.35 C
816 02-04-2014 22:25:00 13.7 C 74 % 9.15 C
817 02-04-2014 22:30:00 13.6 C 74 % 9.06 C
818 02-04-2014 22:35:00 13.4 C 75 % 9.06 C
819 02-04-2014 22:40:00 13.4 C 75 % 9.06 C
820 02-04-2014 22:45:00 13.3 C 76 % 9.16 C
821 02-04-2014 22:50:00 13.3 C 75 % 8.97 C
822 02-04-2014 22:55:00 13.3 C 75 % 8.97 C
823 02-04-2014 23:00:00 13.2 C 76 % 9.07 C
824 02-04-2014 23:05:00 13.1 C 76 % 8.97 C
825 02-04-2014 23:10:00 13.1 C 75 % 8.77 C
Sensor: Nr:Datum:Temp:Feuchte:Taupunkt:
Aussen-T/F 826 02-04-2014 23:15:00 13.1 C 75 % 8.77 C
827 02-04-2014 23:20:00 12.9 C 76 % 8.78 C
828 02-04-2014 23:25:00 12.7 C 76 % 8.58 C
829 02-04-2014 23:30:00 12.6 C 77 % 8.68 C
830 02-04-2014 23:35:00 12.6 C 77 % 8.68 C
831 02-04-2014 23:40:00 12.4 C 78 % 8.68 C
832 02-04-2014 23:45:00 12.3 C 78 % 8.58 C
833 02-04-2014 23:50:00 12.2 C 78 % 8.48 C
834 02-04-2014 23:55:00 12.1 C 79 % 8.57 C
835 03-04-2014 00:00:00 11.9 C 79 % 8.38 C
836 03-04-2014 00:05:00 11.7 C 80 % 8.37 C
837 03-04-2014 00:10:00 11.7 C 80 % 8.37 C
838 03-04-2014 00:15:00 11.6 C 80 % 8.27 C
839 03-04-2014 00:20:00 11.6 C 80 % 8.27 C
840 03-04-2014 00:25:00 11.4 C 80 % 8.08 C
841 03-04-2014 00:30:00 11.3 C 80 % 7.98 C
842 03-04-2014 00:35:00 11.3 C 81 % 8.16 C
843 03-04-2014 00:40:00 11.3 C 82 % 8.34 C
844 03-04-2014 00:45:00 11.4 C 82 % 8.44 C
845 03-04-2014 00:50:00 11.4 C 82 % 8.44 C
846 03-04-2014 00:55:00 11.4 C 82 % 8.44 C
847 03-04-2014 01:00:00 11.4 C 82 % 8.44 C
848 03-04-2014 01:05:00 11.4 C 82 % 8.44 C
849 03-04-2014 01:10:00 11.4 C 81 % 8.26 C
850 03-04-2014 01:15:00 11.4 C 81 % 8.26 C
Sensor: Nr:Datum:Temp:Feuchte:Taupunkt:
Aussen-T/F 851 03-04-2014 01:20:00 11.4 C 81 % 8.26 C
852 03-04-2014 01:25:00 11.4 C 81 % 8.26 C
853 03-04-2014 01:30:00 11.4 C 82 % 8.44 C
854 03-04-2014 01:35:00 11.4 C 82 % 8.44 C
855 03-04-2014 01:40:00 11.3 C 82 % 8.34 C
856 03-04-2014 01:45:00 11.3 C 82 % 8.34 C
857 03-04-2014 01:50:00 11.4 C 82 % 8.44 C
858 03-04-2014 01:55:00 11.5 C 82 % 8.54 C
859 03-04-2014 02:00:00 11.5 C 82 % 8.54 C
860 03-04-2014 02:05:00 11.3 C 82 % 8.34 C
861 03-04-2014 02:10:00 11.2 C 82 % 8.25 C
862 03-04-2014 02:15:00 11.1 C 83 % 8.33 C
863 03-04-2014 02:20:00 10.9 C 83 % 8.13 C
864 03-04-2014 02:25:00 10.8 C 83 % 8.03 C
865 03-04-2014 02:30:00 10.7 C 83 % 7.93 C
866 03-04-2014 02:35:00 10.7 C 84 % 8.11 C
867 03-04-2014 02:40:00 10.7 C 84 % 8.11 C
868 03-04-2014 02:45:00 10.7 C 84 % 8.11 C
869 03-04-2014 02:50:00 10.7 C 84 % 8.11 C
870 03-04-2014 02:55:00 10.7 C 84 % 8.11 C
871 03-04-2014 03:00:00 10.7 C 84 % 8.11 C
872 03-04-2014 03:05:00 10.7 C 85 % 8.28 C
873 03-04-2014 03:10:00 10.7 C 85 % 8.28 C
874 03-04-2014 03:15:00 10.7 C 85 % 8.28 C
875 03-04-2014 03:20:00 10.6 C 85 % 8.19 C
Sensor: Nr:Datum:Temp:Feuchte:Taupunkt:
Aussen-T/F 876 03-04-2014 03:25:00 10.6 C 85 % 8.19 C
877 03-04-2014 03:30:00 10.4 C 85 % 7.99 C
878 03-04-2014 03:35:00 10.4 C 86 % 8.16 C
879 03-04-2014 03:40:00 10.3 C 85 % 7.89 C
880 03-04-2014 03:45:00 10.2 C 85 % 7.79 C
881 03-04-2014 03:50:00 10.2 C 85 % 7.79 C
882 03-04-2014 03:55:00 10.1 C 85 % 7.7 C
883 03-04-2014 04:00:00 9.9 C 85 % 7.5 C
884 03-04-2014 04:05:00 9.8 C 86 % 7.57 C
885 03-04-2014 04:10:00 9.7 C 86 % 7.47 C
886 03-04-2014 04:15:00 9.7 C 86 % 7.47 C
887 03-04-2014 04:20:00 9.7 C 86 % 7.47 C
888 03-04-2014 04:25:00 9.7 C 86 % 7.47 C
889 03-04-2014 04:30:00 9.6 C 86 % 7.38 C
890 03-04-2014 04:35:00 9.4 C 87 % 7.35 C
891 03-04-2014 04:40:00 9.3 C 87 % 7.25 C
892 03-04-2014 04:45:00 9.2 C 87 % 7.15 C
893 03-04-2014 04:50:00 9.1 C 87 % 7.05 C
894 03-04-2014 04:55:00 9.1 C 87 % 7.05 C
895 03-04-2014 05:00:00 9 C 88 % 7.12 C
896 03-04-2014 05:05:00 8.9 C 88 % 7.02 C
897 03-04-2014 05:10:00 8.8 C 89 % 7.09 C
898 03-04-2014 05:15:00 8.7 C 88 % 6.83 C
899 03-04-2014 05:20:00 8.6 C 89 % 6.89 C
900 03-04-2014 05:25:00 8.6 C 90 % 7.06 C
Sensor: Nr:Datum:Temp:Feuchte:Taupunkt:
Aussen-T/F 901 03-04-2014 05:30:00 8.6 C 89 % 6.89 C
902 03-04-2014 05:35:00 8.4 C 90 % 6.86 C
903 03-04-2014 05:40:00 8.3 C 90 % 6.76 C
904 03-04-2014 05:45:00 8.3 C 90 % 6.76 C
905 03-04-2014 05:50:00 8.3 C 90 % 6.76 C
906 03-04-2014 05:55:00 8.4 C 90 % 6.86 C
907 03-04-2014 06:00:00 8.4 C 90 % 6.86 C
908 03-04-2014 06:05:00 8.4 C 90 % 6.86 C
909 03-04-2014 06:10:00 8.3 C 90 % 6.76 C
910 03-04-2014 06:15:00 8.3 C 90 % 6.76 C
911 03-04-2014 06:20:00 8.2 C 90 % 6.66 C
912 03-04-2014 06:25:00 8.2 C 90 % 6.66 C
913 03-04-2014 06:30:00 8.2 C 91 % 6.82 C
914 03-04-2014 06:35:00 8.2 C 91 % 6.82 C
915 03-04-2014 06:40:00 8.2 C 91 % 6.82 C
916 03-04-2014 06:45:00 8.1 C 91 % 6.72 C
917 03-04-2014 06:50:00 8.1 C 91 % 6.72 C
918 03-04-2014 06:55:00 8 C 91 % 6.62 C
919 03-04-2014 07:00:00 7.9 C 91 % 6.52 C
920 03-04-2014 07:05:00 7.9 C 91 % 6.52 C
921 03-04-2014 07:10:00 7.8 C 91 % 6.43 C
922 03-04-2014 07:15:00 7.9 C 92 % 6.68 C
923 03-04-2014 07:20:00 7.9 C 92 % 6.68 C
924 03-04-2014 07:25:00 8 C 92 % 6.78 C
925 03-04-2014 07:30:00 8.1 C 92 % 6.88 C
Sensor: Nr:Datum:Temp:Feuchte:Taupunkt:
Aussen-T/F 926 03-04-2014 07:35:00 8.2 C 92 % 6.98 C
927 03-04-2014 07:40:00 8.3 C 92 % 7.08 C
928 03-04-2014 07:45:00 8.3 C 92 % 7.08 C
929 03-04-2014 07:50:00 8.4 C 92 % 7.18 C
930 03-04-2014 07:55:00 8.4 C 92 % 7.18 C
931 03-04-2014 08:00:00 8.5 C 92 % 7.28 C
932 03-04-2014 08:05:00 8.6 C 92 % 7.38 C
933 03-04-2014 08:10:00 8.7 C 92 % 7.47 C
934 03-04-2014 08:15:00 8.8 C 92 % 7.57 C
935 03-04-2014 08:20:00 8.8 C 91 % 7.41 C
936 03-04-2014 08:25:00 9 C 91 % 7.61 C
937 03-04-2014 08:30:00 9.1 C 91 % 7.71 C
938 03-04-2014 08:35:00 9.2 C 91 % 7.81 C
939 03-04-2014 08:40:00 9.3 C 90 % 7.75 C
940 03-04-2014 08:45:00 9.4 C 90 % 7.85 C
941 03-04-2014 08:50:00 9.4 C 89 % 7.68 C
942 03-04-2014 08:55:00 9.6 C 89 % 7.88 C
943 03-04-2014 09:00:00 9.7 C 89 % 7.98 C
944 03-04-2014 09:05:00 9.7 C 89 % 7.98 C
945 03-04-2014 09:10:00 9.8 C 89 % 8.08 C
946 03-04-2014 09:15:00 9.9 C 88 % 8.01 C
947 03-04-2014 09:20:00 10.1 C 87 % 8.04 C
948 03-04-2014 09:25:00 10.2 C 87 % 8.14 C
949 03-04-2014 09:30:00 10.3 C 87 % 8.23 C
950 03-04-2014 09:35:00 10.4 C 87 % 8.33 C
Sensor: Nr:Datum:Temp:Feuchte:Taupunkt:
Aussen-T/F 951 03-04-2014 09:40:00 10.4 C 86 % 8.16 C
952 03-04-2014 09:45:00 10.5 C 86 % 8.26 C
953 03-04-2014 09:50:00 10.6 C 86 % 8.36 C
954 03-04-2014 09:55:00 10.6 C 86 % 8.36 C
955 03-04-2014 10:00:00 10.7 C 86 % 8.46 C
956 03-04-2014 10:05:00 10.8 C 86 % 8.56 C
957 03-04-2014 10:10:00 10.9 C 86 % 8.65 C
958 03-04-2014 10:15:00 11.1 C 85 % 8.68 C
959 03-04-2014 10:20:00 11.2 C 84 % 8.6 C
960 03-04-2014 10:25:00 11.4 C 85 % 8.97 C
961 03-04-2014 10:30:00 11.7 C 83 % 8.91 C
962 03-04-2014 10:35:00 11.9 C 83 % 9.11 C
963 03-04-2014 10:40:00 12.1 C 81 % 8.94 C
964 03-04-2014 10:45:00 12.2 C 81 % 9.04 C
965 03-04-2014 10:50:00 12.3 C 79 % 8.77 C
966 03-04-2014 10:55:00 12.4 C 80 % 9.05 C
967 03-04-2014 11:00:00 12.6 C 79 % 9.06 C
968 03-04-2014 11:05:00 12.8 C 79 % 9.25 C
969 03-04-2014 11:10:00 13 C 79 % 9.45 C
970 03-04-2014 11:15:00 13.3 C 79 % 9.74 C
971 03-04-2014 11:20:00 13.5 C 76 % 9.36 C
972 03-04-2014 11:25:00 13.7 C 77 % 9.75 C
973 03-04-2014 11:30:00 13.8 C 76 % 9.65 C
974 03-04-2014 11:35:00 13.9 C 75 % 9.55 C
975 03-04-2014 11:40:00 14.1 C 75 % 9.74 C
Sensor: Nr:Datum:Temp:Feuchte:Taupunkt:
Aussen-T/F 976 03-04-2014 11:45:00 14.3 C 75 % 9.93 C
977 03-04-2014 11:50:00 14.4 C 75 % 10.03 C
978 03-04-2014 11:55:00 14.7 C 76 % 10.52 C
979 03-04-2014 12:00:00 14.9 C 75 % 10.51 C
980 03-04-2014 12:05:00 15.3 C 75 % 10.9 C
981 03-04-2014 12:10:00 15.6 C 73 % 10.78 C
982 03-04-2014 12:15:00 16 C 74 % 11.37 C
983 03-04-2014 12:20:00 16.4 C 72 % 11.34 C
984 03-04-2014 12:25:00 16.9 C 69 % 11.18 C
985 03-04-2014 12:30:00 17.3 C 67 % 11.12 C
986 03-04-2014 12:35:00 17.7 C 66 % 11.27 C
987 03-04-2014 12:40:00 18.2 C 65 % 11.52 C
988 03-04-2014 12:45:00 18.6 C 62 % 11.18 C
989 03-04-2014 12:50:00 18.8 C 59 % 10.63 C
990 03-04-2014 12:55:00 19.3 C 59 % 11.09 C
991 03-04-2014 13:00:00 19.6 C 56 % 10.59 C
992 03-04-2014 13:05:00 19.9 C 55 % 10.6 C
993 03-04-2014 13:10:00 20.2 C 50 % 9.45 C
994 03-04-2014 13:15:00 20.4 C 49 % 9.34 C
995 03-04-2014 13:20:00 20.6 C 46 % 8.58 C
996 03-04-2014 13:25:00 20.7 C 45 % 8.35 C
997 03-04-2014 13:30:00 20.7 C 45 % 8.35 C
998 03-04-2014 13:35:00 20.7 C 44 % 8.02 C
999 03-04-2014 13:40:00 20.7 C 45 % 8.35 C
1000 03-04-2014 13:45:00 20.8 C 44 % 8.11 C
Sensor: Nr:Datum:Temp:Feuchte:Taupunkt:
Aussen-T/F 1001 03-04-2014 13:50:00 20.8 C 46 % 8.77 C
1002 03-04-2014 13:55:00 21 C 44 % 8.29 C
1003 03-04-2014 14:00:00 21.2 C 45 % 8.8 C
1004 03-04-2014 14:05:00 21.3 C 44 % 8.56 C
1005 03-04-2014 14:10:00 21.4 C 44 % 8.65 C
1006 03-04-2014 14:15:00 21.4 C 44 % 8.65 C
1007 03-04-2014 14:20:00 21.4 C 44 % 8.65 C
1008 03-04-2014 14:25:00 21.4 C 44 % 8.65 C
1009 03-04-2014 18:55:00 20.4 C 51 % 9.93 C
1010 03-04-2014 19:00:00 19.9 C 53 % 10.04 C
1011 03-04-2014 19:05:00 19.6 C 54 % 10.05 C
1012 03-04-2014 19:10:00 19.4 C 55 % 10.13 C
1013 03-04-2014 19:15:00 19.4 C 55 % 10.13 C
1014 03-04-2014 20:25:00 16.4 C 100 % 16.4 C
1015 03-04-2014 20:30:00 16.3 C 61 % 8.77 C
1016 03-04-2014 20:35:00 16.2 C 61 % 8.68 C
1017 03-04-2014 20:40:00 16.2 C 60 % 8.43 C
1018 03-04-2014 20:45:00 16.2 C 64 % 9.39 C
1019 03-04-2014 20:50:00 15.9 C 63 % 8.87 C
1020 03-04-2014 20:55:00 15.8 C 62 % 8.54 C
1021 03-04-2014 21:00:00 15.8 C 62 % 8.54 C
1022 03-04-2014 21:05:00 15.7 C 63 % 8.68 C
1023 03-04-2014 21:10:00 15.6 C 64 % 8.82 C
1024 03-04-2014 21:15:00 15.5 C 63 % 8.49 C
1025 03-04-2014 21:20:00 15.4 C 65 % 8.86 C
Sensor: Nr:Datum:Temp:Feuchte:Taupunkt:
Aussen-T/F 1026 03-04-2014 21:25:00 15.3 C 66 % 8.99 C
1027 03-04-2014 21:30:00 15.2 C 68 % 9.34 C
1028 03-04-2014 21:35:00 15.2 C 68 % 9.34 C
1029 03-04-2014 21:40:00 15.2 C 69 % 9.56 C
1030 03-04-2014 21:45:00 15.2 C 64 % 8.44 C
1031 03-04-2014 21:50:00 15.3 C 66 % 8.99 C
1032 03-04-2014 21:55:00 15.4 C 66 % 9.09 C
1033 03-04-2014 22:00:00 15.3 C 67 % 9.21 C
1034 03-04-2014 22:05:00 15.1 C 66 % 8.8 C
1035 03-04-2014 22:10:00 14.9 C 68 % 9.05 C
1036 03-04-2014 22:15:00 14.7 C 69 % 9.08 C
1037 03-04-2014 22:20:00 14.6 C 71 % 9.41 C
1038 03-04-2014 22:25:00 14.4 C 71 % 9.21 C
1039 03-04-2014 22:30:00 14.3 C 73 % 9.53 C
1040 03-04-2014 22:35:00 14.1 C 71 % 8.93 C
1041 03-04-2014 22:40:00 14.1 C 71 % 8.93 C
1042 03-04-2014 22:45:00 14 C 70 % 8.62 C
1043 03-04-2014 22:50:00 13.9 C 71 % 8.73 C
1044 03-04-2014 22:55:00 13.9 C 71 % 8.73 C
1045 03-04-2014 23:00:00 13.7 C 73 % 8.95 C
1046 03-04-2014 23:05:00 13.6 C 73 % 8.86 C
1047 03-04-2014 23:10:00 13.5 C 72 % 8.56 C
1048 03-04-2014 23:15:00 13.4 C 73 % 8.66 C
1049 03-04-2014 23:20:00 13.3 C 75 % 8.97 C
1050 03-04-2014 23:25:00 13.2 C 75 % 8.87 C
Sensor: Nr:Datum:Temp:Feuchte:Taupunkt:
Aussen-T/F 1051 03-04-2014 23:30:00 13.1 C 75 % 8.77 C
1052 03-04-2014 23:35:00 13.1 C 75 % 8.77 C
1053 03-04-2014 23:40:00 12.9 C 76 % 8.78 C
1054 03-04-2014 23:45:00 12.8 C 76 % 8.68 C
1055 03-04-2014 23:50:00 12.8 C 75 % 8.48 C
1056 03-04-2014 23:55:00 12.7 C 76 % 8.58 C
1057 04-04-2014 00:00:00 12.7 C 77 % 8.78 C
1058 04-04-2014 00:05:00 12.6 C 77 % 8.68 C
1059 04-04-2014 00:10:00 12.5 C 77 % 8.58 C
1060 04-04-2014 00:15:00 12.4 C 76 % 8.29 C
1061 04-04-2014 00:20:00 12.3 C 76 % 8.2 C
1062 04-04-2014 00:25:00 12.2 C 77 % 8.29 C
1063 04-04-2014 00:30:00 12.2 C 78 % 8.48 C
1064 04-04-2014 00:35:00 12.2 C 78 % 8.48 C
1065 04-04-2014 00:40:00 12.2 C 78 % 8.48 C
1066 04-04-2014 00:45:00 12.2 C 78 % 8.48 C
1067 04-04-2014 00:50:00 12.3 C 79 % 8.77 C
1068 04-04-2014 00:55:00 12.3 C 80 % 8.95 C
1069 04-04-2014 01:00:00 12.3 C 80 % 8.95 C
1070 04-04-2014 01:05:00 12.4 C 79 % 8.86 C
1071 04-04-2014 01:10:00 12.5 C 78 % 8.77 C
1072 04-04-2014 01:15:00 12.7 C 77 % 8.78 C
1073 04-04-2014 01:20:00 12.8 C 78 % 9.06 C
1074 04-04-2014 01:25:00 12.8 C 77 % 8.87 C
1075 04-04-2014 01:30:00 12.9 C 76 % 8.78 C
Sensor: Nr:Datum:Temp:Feuchte:Taupunkt:
Aussen-T/F 1076 04-04-2014 01:35:00 13.1 C 76 % 8.97 C
1077 04-04-2014 01:40:00 13.1 C 77 % 9.16 C
1078 04-04-2014 01:45:00 13.1 C 77 % 9.16 C
1079 04-04-2014 01:50:00 12.9 C 77 % 8.97 C
1080 04-04-2014 01:55:00 12.9 C 77 % 8.97 C
1081 04-04-2014 02:00:00 12.8 C 78 % 9.06 C
1082 04-04-2014 02:05:00 12.8 C 78 % 9.06 C
1083 04-04-2014 02:10:00 12.8 C 78 % 9.06 C
1084 04-04-2014 02:15:00 12.8 C 78 % 9.06 C
1085 04-04-2014 02:20:00 12.8 C 77 % 8.87 C
1086 04-04-2014 02:25:00 12.8 C 78 % 9.06 C
1087 04-04-2014 02:30:00 12.8 C 78 % 9.06 C
1088 04-04-2014 02:35:00 12.8 C 78 % 9.06 C
1089 04-04-2014 02:40:00 12.8 C 78 % 9.06 C
1090 04-04-2014 02:45:00 12.7 C 78 % 8.97 C
1091 04-04-2014 02:50:00 12.7 C 79 % 9.16 C
1092 04-04-2014 02:55:00 12.6 C 79 % 9.06 C
1093 04-04-2014 03:00:00 12.6 C 79 % 9.06 C
1094 04-04-2014 03:05:00 12.5 C 79 % 8.96 C
1095 04-04-2014 03:10:00 12.4 C 80 % 9.05 C
1096 04-04-2014 03:15:00 12.4 C 80 % 9.05 C
1097 04-04-2014 03:20:00 12.3 C 81 % 9.14 C
1098 04-04-2014 03:25:00 12.3 C 81 % 9.14 C
1099 04-04-2014 03:30:00 12.3 C 81 % 9.14 C
1100 04-04-2014 03:35:00 12.2 C 82 % 9.22 C
Sensor: Nr:Datum:Temp:Feuchte:Taupunkt:
Aussen-T/F 1101 04-04-2014 03:40:00 12.2 C 81 % 9.04 C
1102 04-04-2014 03:45:00 12.2 C 82 % 9.22 C
1103 04-04-2014 03:50:00 12.2 C 82 % 9.22 C
1104 04-04-2014 03:55:00 12.2 C 82 % 9.22 C
1105 04-04-2014 04:00:00 12.2 C 81 % 9.04 C
1106 04-04-2014 04:05:00 12.2 C 82 % 9.22 C
1107 04-04-2014 04:10:00 12.2 C 82 % 9.22 C
1108 04-04-2014 04:15:00 12.2 C 82 % 9.22 C
1109 04-04-2014 04:20:00 12.2 C 82 % 9.22 C
1110 04-04-2014 04:25:00 12.2 C 82 % 9.22 C
1111 04-04-2014 04:30:00 12.2 C 82 % 9.22 C
1112 04-04-2014 04:35:00 12.1 C 83 % 9.3 C
1113 04-04-2014 04:40:00 12.1 C 83 % 9.3 C
1114 04-04-2014 04:45:00 11.9 C 83 % 9.11 C
1115 04-04-2014 04:50:00 11.9 C 83 % 9.11 C
1116 04-04-2014 04:55:00 11.8 C 83 % 9.01 C
1117 04-04-2014 05:00:00 11.8 C 83 % 9.01 C
1118 04-04-2014 05:05:00 11.8 C 84 % 9.19 C
1119 04-04-2014 05:10:00 11.7 C 84 % 9.09 C
1120 04-04-2014 05:15:00 11.7 C 84 % 9.09 C
1121 04-04-2014 05:20:00 11.6 C 84 % 8.99 C
1122 04-04-2014 05:25:00 11.6 C 84 % 8.99 C
1123 04-04-2014 05:30:00 11.5 C 84 % 8.89 C
1124 04-04-2014 05:35:00 11.4 C 84 % 8.8 C
1125 04-04-2014 05:40:00 11.3 C 84 % 8.7 C
Sensor: Nr:Datum:Temp:Feuchte:Taupunkt:
Aussen-T/F 1126 04-04-2014 05:45:00 11.3 C 84 % 8.7 C
1127 04-04-2014 05:50:00 11.3 C 85 % 8.87 C
1128 04-04-2014 05:55:00 11.3 C 85 % 8.87 C
1129 04-04-2014 06:00:00 11.3 C 85 % 8.87 C
1130 04-04-2014 06:05:00 11.3 C 85 % 8.87 C
1131 04-04-2014 06:10:00 11.3 C 86 % 9.05 C
1132 04-04-2014 06:15:00 11.3 C 85 % 8.87 C
1133 04-04-2014 06:20:00 11.3 C 85 % 8.87 C
1134 04-04-2014 06:25:00 11.3 C 85 % 8.87 C
1135 04-04-2014 06:30:00 11.3 C 85 % 8.87 C
1136 04-04-2014 06:35:00 11.3 C 86 % 9.05 C
1137 04-04-2014 06:40:00 11.3 C 86 % 9.05 C
1138 04-04-2014 06:45:00 11.2 C 86 % 8.95 C
1139 04-04-2014 06:50:00 11.3 C 86 % 9.05 C
1140 04-04-2014 06:55:00 11.4 C 86 % 9.14 C
1141 04-04-2014 07:00:00 11.4 C 85 % 8.97 C
1142 04-04-2014 07:05:00 11.4 C 85 % 8.97 C
1143 04-04-2014 07:10:00 11.4 C 85 % 8.97 C
1144 04-04-2014 07:15:00 11.4 C 85 % 8.97 C
1145 04-04-2014 07:20:00 11.3 C 85 % 8.87 C
1146 04-04-2014 07:25:00 11.2 C 86 % 8.95 C
1147 04-04-2014 07:30:00 11.2 C 86 % 8.95 C
1148 04-04-2014 07:35:00 11.1 C 86 % 8.85 C
1149 04-04-2014 07:40:00 11.1 C 87 % 9.02 C
1150 04-04-2014 07:45:00 11.1 C 87 % 9.02 C
Sensor: Nr:Datum:Temp:Feuchte:Taupunkt:
Aussen-T/F 1151 04-04-2014 07:50:00 11.1 C 87 % 9.02 C
1152 04-04-2014 07:55:00 11 C 87 % 8.92 C
1153 04-04-2014 08:00:00 11 C 87 % 8.92 C
1154 04-04-2014 08:05:00 10.9 C 87 % 8.82 C
1155 04-04-2014 08:10:00 10.9 C 88 % 8.99 C
1156 04-04-2014 08:15:00 10.9 C 88 % 8.99 C
1157 04-04-2014 08:20:00 10.9 C 88 % 8.99 C
1158 04-04-2014 08:25:00 11 C 88 % 9.09 C
1159 04-04-2014 08:30:00 11 C 88 % 9.09 C
1160 04-04-2014 08:35:00 11.1 C 88 % 9.19 C
1161 04-04-2014 08:40:00 11.1 C 87 % 9.02 C
1162 04-04-2014 08:45:00 11.2 C 88 % 9.29 C
1163 04-04-2014 08:50:00 11.3 C 87 % 9.22 C
1164 04-04-2014 08:55:00 11.3 C 87 % 9.22 C
1165 04-04-2014 09:00:00 11.4 C 87 % 9.32 C
1166 04-04-2014 09:05:00 11.4 C 87 % 9.32 C
1167 04-04-2014 09:10:00 11.6 C 87 % 9.51 C
1168 04-04-2014 09:15:00 11.7 C 87 % 9.61 C
1169 04-04-2014 09:20:00 11.7 C 86 % 9.44 C
1170 04-04-2014 09:25:00 11.8 C 86 % 9.54 C
1171 04-04-2014 09:30:00 11.9 C 85 % 9.46 C
1172 04-04-2014 09:35:00 12 C 85 % 9.56 C
1173 04-04-2014 09:40:00 12.1 C 86 % 9.83 C
1174 04-04-2014 09:45:00 12.2 C 85 % 9.76 C
1175 04-04-2014 09:50:00 12.3 C 84 % 9.68 C
Sensor: Nr:Datum:Temp:Feuchte:Taupunkt:
Aussen-T/F 1176 04-04-2014 09:55:00 12.5 C 84 % 9.87 C
1177 04-04-2014 10:00:00 12.6 C 84 % 9.97 C
1178 04-04-2014 10:05:00 12.8 C 83 % 9.99 C
1179 04-04-2014 10:10:00 12.8 C 82 % 9.81 C
1180 04-04-2014 10:15:00 12.9 C 82 % 9.9 C
1181 04-04-2014 10:20:00 13 C 82 % 10 C
1182 04-04-2014 10:25:00 13.1 C 81 % 9.92 C
1183 04-04-2014 10:30:00 13.2 C 82 % 10.2 C
1184 04-04-2014 10:35:00 13.3 C 81 % 10.11 C
1185 04-04-2014 10:40:00 13.5 C 81 % 10.31 C
1186 04-04-2014 10:45:00 13.7 C 80 % 10.32 C
1187 04-04-2014 10:50:00 13.8 C 80 % 10.41 C
1188 04-04-2014 10:55:00 13.9 C 80 % 10.51 C
1189 04-04-2014 11:00:00 14.1 C 80 % 10.71 C
1190 04-04-2014 11:05:00 14.2 C 80 % 10.8 C
1191 04-04-2014 11:10:00 14.4 C 79 % 10.81 C
1192 04-04-2014 11:15:00 14.6 C 77 % 10.62 C
1193 04-04-2014 11:20:00 14.7 C 78 % 10.91 C
1194 04-04-2014 11:25:00 14.9 C 78 % 11.1 C
1195 04-04-2014 11:30:00 15.1 C 76 % 10.9 C
1196 04-04-2014 11:35:00 15.3 C 76 % 11.1 C
1197 04-04-2014 11:40:00 15.4 C 74 % 10.79 C
1198 04-04-2014 11:45:00 15.6 C 75 % 11.19 C
1199 04-04-2014 11:50:00 15.7 C 76 % 11.48 C
1200 04-04-2014 11:55:00 15.9 C 75 % 11.48 C
Sensor: Nr:Datum:Temp:Feuchte:Taupunkt:
Aussen-T/F 1201 04-04-2014 12:00:00 16.1 C 76 % 11.87 C
1202 04-04-2014 12:05:00 16.2 C 75 % 11.77 C
1203 04-04-2014 12:10:00 16.4 C 72 % 11.34 C
1204 04-04-2014 12:15:00 16.6 C 70 % 11.11 C
1205 04-04-2014 12:20:00 16.7 C 70 % 11.21 C
1206 04-04-2014 12:25:00 16.9 C 71 % 11.61 C
1207 04-04-2014 12:30:00 17.1 C 68 % 11.15 C
1208 04-04-2014 12:35:00 17.3 C 70 % 11.78 C
1209 04-04-2014 12:40:00 17.5 C 69 % 11.75 C
1210 04-04-2014 12:45:00 17.6 C 67 % 11.4 C
1211 04-04-2014 12:50:00 17.7 C 67 % 11.5 C
1212 04-04-2014 12:55:00 17.8 C 67 % 11.6 C
1213 04-04-2014 13:00:00 18 C 68 % 12.01 C
1214 04-04-2014 13:05:00 18.2 C 65 % 11.52 C
1215 04-04-2014 13:10:00 18.3 C 68 % 12.3 C
1216 04-04-2014 13:15:00 18.4 C 65 % 11.71 C
1217 04-04-2014 13:20:00 18.6 C 63 % 11.42 C
1218 04-04-2014 13:25:00 18.8 C 65 % 12.09 C
1219 04-04-2014 13:30:00 19.1 C 66 % 12.6 C
1220 04-04-2014 13:35:00 19.3 C 61 % 11.6 C
1221 04-04-2014 13:40:00 19.6 C 60 % 11.63 C
1222 04-04-2014 13:45:00 19.7 C 58 % 11.21 C
1223 04-04-2014 13:50:00 19.8 C 60 % 11.82 C
1224 04-04-2014 13:55:00 19.9 C 60 % 11.91 C
1225 04-04-2014 14:00:00 19.9 C 58 % 11.4 C
Sensor: Nr:Datum:Temp:Feuchte:Taupunkt:
Aussen-T/F 1226 04-04-2014 14:05:00 20 C 56 % 10.96 C
1227 04-04-2014 14:10:00 20.1 C 57 % 11.32 C
1228 04-04-2014 14:15:00 20.2 C 56 % 11.15 C
1229 04-04-2014 14:20:00 20.2 C 56 % 11.15 C
1230 04-04-2014 14:25:00 20.2 C 56 % 11.15 C
1231 04-04-2014 14:30:00 20.2 C 57 % 11.42 C
1232 04-04-2014 14:35:00 20.3 C 57 % 11.51 C
1233 04-04-2014 14:40:00 20.3 C 57 % 11.51 C
1234 04-04-2014 14:45:00 20.4 C 57 % 11.6 C
1235 04-04-2014 14:50:00 20.4 C 56 % 11.33 C
1236 04-04-2014 14:55:00 20.4 C 56 % 11.33 C
1237 04-04-2014 15:00:00 20.4 C 56 % 11.33 C
1238 04-04-2014 15:05:00 20.5 C 56 % 11.43 C
1239 04-04-2014 15:10:00 20.5 C 58 % 11.96 C
1240 04-04-2014 15:15:00 20.5 C 58 % 11.96 C
1241 04-04-2014 15:20:00 20.5 C 55 % 11.16 C
1242 04-04-2014 15:25:00 20.5 C 55 % 11.16 C
1243 04-04-2014 15:30:00 20.6 C 55 % 11.25 C
1244 04-04-2014 15:35:00 20.7 C 55 % 11.34 C
1245 04-04-2014 15:40:00 20.7 C 55 % 11.34 C
1246 04-04-2014 15:45:00 20.7 C 57 % 11.88 C
1247 04-04-2014 15:50:00 20.7 C 56 % 11.61 C
1248 04-04-2014 15:55:00 20.7 C 57 % 11.88 C
1249 04-04-2014 16:00:00 20.7 C 57 % 11.88 C
1250 04-04-2014 16:05:00 20.7 C 56 % 11.61 C
Sensor: Nr:Datum:Temp:Feuchte:Taupunkt:
Aussen-T/F 1251 04-04-2014 16:10:00 20.6 C 56 % 11.52 C
1252 04-04-2014 16:15:00 20.5 C 57 % 11.7 C
1253 04-04-2014 16:20:00 20.5 C 57 % 11.7 C
1254 04-04-2014 16:25:00 20.3 C 57 % 11.51 C
1255 04-04-2014 16:30:00 20.2 C 57 % 11.42 C
1256 04-04-2014 16:35:00 20.2 C 57 % 11.42 C
1257 04-04-2014 16:40:00 20.3 C 59 % 12.03 C
1258 04-04-2014 16:45:00 20.3 C 58 % 11.77 C
1259 04-04-2014 16:50:00 20.2 C 59 % 11.94 C
1260 04-04-2014 16:55:00 20.2 C 60 % 12.19 C
1261 04-04-2014 17:00:00 20.1 C 60 % 12.1 C
1262 04-04-2014 17:05:00 20.1 C 60 % 12.1 C
1263 04-04-2014 17:10:00 20.2 C 61 % 12.44 C
1264 04-04-2014 17:15:00 20.3 C 60 % 12.29 C
1265 04-04-2014 17:20:00 20.3 C 60 % 12.29 C
1266 04-04-2014 17:25:00 20.3 C 60 % 12.29 C
1267 04-04-2014 17:30:00 20.3 C 60 % 12.29 C
1268 04-04-2014 18:25:00 19.4 C 100 % 19.4 C
1269 04-04-2014 18:30:00 19.4 C 100 % 19.4 C
1270 04-04-2014 18:35:00 19.3 C 60 % 11.35 C
1271 04-04-2014 18:40:00 19.2 C 61 % 11.5 C
1272 04-04-2014 18:45:00 19.2 C 61 % 11.5 C
1273 04-04-2014 18:50:00 19.2 C 61 % 11.5 C
1274 04-04-2014 18:55:00 19.2 C 61 % 11.5 C
1275 04-04-2014 19:00:00 18.8 C 61 % 11.13 C
Sensor: Nr:Datum:Temp:Feuchte:Taupunkt:
Aussen-T/F 1276 04-04-2014 19:05:00 18.8 C 61 % 11.13 C
1277 04-04-2014 19:10:00 18.4 C 62 % 10.99 C
1278 04-04-2014 19:15:00 18.3 C 62 % 10.9 C
1279 04-04-2014 19:20:00 18.1 C 62 % 10.71 C
1280 04-04-2014 19:25:00 17.9 C 62 % 10.52 C
1281 04-04-2014 19:30:00 17.8 C 63 % 10.67 C
1282 04-04-2014 19:35:00 17.7 C 63 % 10.57 C
1283 04-04-2014 19:40:00 17.6 C 64 % 10.72 C
1284 04-04-2014 19:45:00 17.5 C 65 % 10.85 C
1285 04-04-2014 19:50:00 17.4 C 65 % 10.76 C
1286 04-04-2014 19:55:00 17.3 C 66 % 10.89 C
1287 04-04-2014 20:00:00 17.2 C 66 % 10.8 C
1288 04-04-2014 20:05:00 17.2 C 67 % 11.02 C
1289 04-04-2014 20:10:00 17.1 C 67 % 10.93 C
1290 04-04-2014 20:15:00 17.1 C 67 % 10.93 C
1291 04-04-2014 20:20:00 17 C 68 % 11.06 C
1292 04-04-2014 20:25:00 16.8 C 68 % 10.87 C
1293 04-04-2014 20:30:00 16.8 C 69 % 11.09 C
1294 04-04-2014 20:35:00 16.6 C 70 % 11.11 C
1295 04-04-2014 20:40:00 16.3 C 71 % 11.04 C
1296 04-04-2014 20:45:00 16.2 C 72 % 11.15 C
1297 04-04-2014 20:50:00 16.1 C 72 % 11.06 C
1298 04-04-2014 20:55:00 16.1 C 73 % 11.26 C
1299 04-04-2014 21:00:00 15.9 C 74 % 11.28 C
1300 04-04-2014 21:05:00 15.7 C 75 % 11.28 C
Sensor: Nr:Datum:Temp:Feuchte:Taupunkt:
Aussen-T/F 1301 04-04-2014 21:10:00 15.5 C 76 % 11.29 C
1302 04-04-2014 21:15:00 15.5 C 76 % 11.29 C
1303 04-04-2014 21:20:00 15.6 C 76 % 11.39 C
1304 04-04-2014 21:25:00 15.4 C 76 % 11.19 C
1305 04-04-2014 21:30:00 15.3 C 77 % 11.3 C
1306 04-04-2014 21:35:00 15.1 C 78 % 11.3 C
1307 04-04-2014 21:40:00 14.9 C 78 % 11.1 C
1308 04-04-2014 21:45:00 14.8 C 79 % 11.2 C
1309 04-04-2014 21:50:00 14.8 C 79 % 11.2 C
1310 04-04-2014 21:55:00 14.9 C 79 % 11.29 C
1311 04-04-2014 22:00:00 14.9 C 79 % 11.29 C
1312 04-04-2014 22:05:00 15 C 78 % 11.2 C
1313 04-04-2014 22:10:00 15.1 C 78 % 11.3 C
1314 04-04-2014 22:15:00 15.1 C 78 % 11.3 C
1315 04-04-2014 22:20:00 15.2 C 78 % 11.39 C
1316 04-04-2014 22:25:00 15.1 C 78 % 11.3 C
1317 04-04-2014 22:30:00 15.1 C 78 % 11.3 C
1318 04-04-2014 22:35:00 15.1 C 79 % 11.49 C
1319 04-04-2014 22:40:00 14.9 C 80 % 11.48 C
1320 04-04-2014 22:45:00 14.6 C 81 % 11.38 C
1321 04-04-2014 22:50:00 14.4 C 81 % 11.18 C
1322 04-04-2014 22:55:00 14.3 C 82 % 11.27 C
1323 04-04-2014 23:00:00 14.1 C 82 % 11.08 C
1324 04-04-2014 23:05:00 14 C 83 % 11.16 C
1325 04-04-2014 23:10:00 13.9 C 83 % 11.06 C
Sensor: Nr:Datum:Temp:Feuchte:Taupunkt:
Aussen-T/F 1326 04-04-2014 23:15:00 13.9 C 83 % 11.06 C
1327 04-04-2014 23:20:00 13.9 C 83 % 11.06 C
1328 04-04-2014 23:25:00 14.1 C 83 % 11.26 C
1329 04-04-2014 23:30:00 14.1 C 83 % 11.26 C
1330 04-04-2014 23:35:00 14.1 C 83 % 11.26 C
1331 04-04-2014 23:40:00 14.1 C 83 % 11.26 C
1332 04-04-2014 23:45:00 14 C 83 % 11.16 C
1333 04-04-2014 23:50:00 13.9 C 84 % 11.24 C
1334 04-04-2014 23:55:00 13.9 C 84 % 11.24 C
1335 05-04-2014 00:00:00 14.1 C 84 % 11.44 C
1336 05-04-2014 00:05:00 14.1 C 84 % 11.44 C
1337 05-04-2014 00:10:00 14.1 C 84 % 11.44 C
1338 05-04-2014 00:15:00 14.1 C 84 % 11.44 C
1339 05-04-2014 00:20:00 14.1 C 84 % 11.44 C
1340 05-04-2014 00:25:00 14.1 C 85 % 11.62 C
1341 05-04-2014 00:30:00 14 C 85 % 11.52 C
1342 05-04-2014 00:35:00 13.9 C 85 % 11.42 C
1343 05-04-2014 00:40:00 13.8 C 86 % 11.5 C
1344 05-04-2014 00:45:00 13.8 C 86 % 11.5 C
1345 05-04-2014 00:50:00 13.7 C 86 % 11.4 C
1346 05-04-2014 00:55:00 13.7 C 86 % 11.4 C
1347 05-04-2014 01:00:00 13.6 C 87 % 11.48 C
1348 05-04-2014 01:05:00 13.6 C 87 % 11.48 C
1349 05-04-2014 01:10:00 13.6 C 87 % 11.48 C
1350 05-04-2014 01:15:00 13.5 C 87 % 11.38 C
Sensor: Nr:Datum:Temp:Feuchte:Taupunkt:
Aussen-T/F 1351 05-04-2014 01:20:00 13.4 C 87 % 11.28 C
1352 05-04-2014 01:25:00 13.4 C 87 % 11.28 C
1353 05-04-2014 01:30:00 13.4 C 87 % 11.28 C
1354 05-04-2014 01:35:00 13.4 C 87 % 11.28 C
1355 05-04-2014 01:40:00 13.4 C 87 % 11.28 C
1356 05-04-2014 01:45:00 13.3 C 87 % 11.18 C
1357 05-04-2014 01:50:00 13.3 C 87 % 11.18 C
1358 05-04-2014 01:55:00 13.3 C 87 % 11.18 C
1359 05-04-2014 02:00:00 13.3 C 87 % 11.18 C
1360 05-04-2014 02:05:00 13.3 C 87 % 11.18 C
1361 05-04-2014 02:10:00 13.2 C 87 % 11.09 C
1362 05-04-2014 02:15:00 13.2 C 87 % 11.09 C
1363 05-04-2014 02:20:00 13.2 C 87 % 11.09 C
1364 05-04-2014 02:25:00 13.2 C 87 % 11.09 C
1365 05-04-2014 02:30:00 13.2 C 87 % 11.09 C
1366 05-04-2014 02:35:00 13.2 C 87 % 11.09 C
1367 05-04-2014 02:40:00 13.2 C 87 % 11.09 C
1368 05-04-2014 02:45:00 13.2 C 87 % 11.09 C
1369 05-04-2014 02:50:00 13.1 C 87 % 10.99 C
1370 05-04-2014 02:55:00 13.1 C 87 % 10.99 C
1371 05-04-2014 03:00:00 13.1 C 87 % 10.99 C
1372 05-04-2014 03:05:00 13 C 87 % 10.89 C
1373 05-04-2014 03:10:00 13 C 87 % 10.89 C
1374 05-04-2014 03:15:00 13 C 88 % 11.06 C
1375 05-04-2014 03:20:00 12.9 C 88 % 10.96 C
Sensor: Nr:Datum:Temp:Feuchte:Taupunkt:
Aussen-T/F 1376 05-04-2014 03:25:00 12.9 C 88 % 10.96 C
1377 05-04-2014 03:30:00 12.9 C 88 % 10.96 C
1378 05-04-2014 03:35:00 12.9 C 88 % 10.96 C
1379 05-04-2014 03:40:00 12.9 C 88 % 10.96 C
1380 05-04-2014 03:45:00 12.8 C 88 % 10.86 C
1381 05-04-2014 03:50:00 12.8 C 87 % 10.69 C
1382 05-04-2014 03:55:00 12.8 C 87 % 10.69 C
1383 05-04-2014 04:00:00 12.8 C 87 % 10.69 C
1384 05-04-2014 04:05:00 12.8 C 87 % 10.69 C
1385 05-04-2014 04:10:00 12.8 C 87 % 10.69 C
1386 05-04-2014 04:15:00 12.8 C 87 % 10.69 C
1387 05-04-2014 04:20:00 12.8 C 87 % 10.69 C
1388 05-04-2014 04:25:00 12.7 C 87 % 10.59 C
1389 05-04-2014 04:30:00 12.7 C 87 % 10.59 C
1390 05-04-2014 04:35:00 12.7 C 87 % 10.59 C
1391 05-04-2014 04:40:00 12.7 C 87 % 10.59 C
1392 05-04-2014 04:45:00 12.7 C 87 % 10.59 C
1393 05-04-2014 04:50:00 12.7 C 87 % 10.59 C
1394 05-04-2014 04:55:00 12.7 C 87 % 10.59 C
1395 05-04-2014 05:00:00 12.7 C 87 % 10.59 C
1396 05-04-2014 05:05:00 12.7 C 87 % 10.59 C
1397 05-04-2014 05:10:00 12.7 C 87 % 10.59 C
1398 05-04-2014 05:15:00 12.6 C 87 % 10.5 C
1399 05-04-2014 05:20:00 12.6 C 87 % 10.5 C
1400 05-04-2014 05:25:00 12.6 C 87 % 10.5 C
Sensor: Nr:Datum:Temp:Feuchte:Taupunkt:
Aussen-T/F 1401 05-04-2014 05:30:00 12.6 C 87 % 10.5 C
1402 05-04-2014 05:35:00 12.5 C 88 % 10.57 C
1403 05-04-2014 05:40:00 12.4 C 88 % 10.47 C
1404 05-04-2014 05:45:00 12.4 C 88 % 10.47 C
1405 05-04-2014 05:50:00 12.3 C 89 % 10.54 C
1406 05-04-2014 05:55:00 12.3 C 89 % 10.54 C
1407 05-04-2014 06:00:00 12.2 C 90 % 10.61 C
1408 05-04-2014 06:05:00 12.2 C 90 % 10.61 C
1409 05-04-2014 06:10:00 12.2 C 91 % 10.78 C
1410 05-04-2014 06:15:00 12.1 C 90 % 10.51 C
1411 05-04-2014 06:20:00 12.1 C 90 % 10.51 C
1412 05-04-2014 06:25:00 12.1 C 90 % 10.51 C
1413 05-04-2014 06:30:00 12.1 C 90 % 10.51 C
1414 05-04-2014 06:35:00 12.1 C 90 % 10.51 C
1415 05-04-2014 06:40:00 12.1 C 90 % 10.51 C
1416 05-04-2014 06:45:00 12.1 C 90 % 10.51 C
1417 05-04-2014 06:50:00 12.1 C 90 % 10.51 C
1418 05-04-2014 06:55:00 12.1 C 90 % 10.51 C
1419 05-04-2014 07:00:00 12.1 C 90 % 10.51 C
1420 05-04-2014 07:05:00 12 C 90 % 10.41 C
1421 05-04-2014 07:10:00 12 C 90 % 10.41 C
1422 05-04-2014 07:15:00 12 C 90 % 10.41 C
1423 05-04-2014 07:20:00 12 C 90 % 10.41 C
1424 05-04-2014 07:25:00 12 C 90 % 10.41 C
1425 05-04-2014 07:30:00 12 C 90 % 10.41 C
Sensor: Nr:Datum:Temp:Feuchte:Taupunkt:
Aussen-T/F 1426 05-04-2014 07:35:00 12 C 90 % 10.41 C
1427 05-04-2014 07:40:00 12 C 90 % 10.41 C
1428 05-04-2014 07:45:00 12 C 90 % 10.41 C
1429 05-04-2014 07:50:00 12 C 90 % 10.41 C
1430 05-04-2014 07:55:00 12 C 90 % 10.41 C
1431 05-04-2014 08:00:00 12 C 90 % 10.41 C
1432 05-04-2014 08:05:00 12 C 90 % 10.41 C
1433 05-04-2014 08:10:00 12 C 90 % 10.41 C
1434 05-04-2014 08:15:00 11.9 C 90 % 10.31 C
1435 05-04-2014 08:20:00 12 C 90 % 10.41 C
1436 05-04-2014 08:25:00 12 C 90 % 10.41 C
1437 05-04-2014 08:30:00 12 C 90 % 10.41 C
1438 05-04-2014 08:35:00 12.1 C 90 % 10.51 C
1439 05-04-2014 08:40:00 12.1 C 90 % 10.51 C
1440 05-04-2014 08:45:00 12.1 C 90 % 10.51 C
1441 05-04-2014 08:50:00 12.1 C 90 % 10.51 C
1442 05-04-2014 08:55:00 12.2 C 90 % 10.61 C
1443 05-04-2014 09:00:00 12.2 C 90 % 10.61 C
1444 05-04-2014 09:05:00 12.2 C 90 % 10.61 C
1445 05-04-2014 09:10:00 12.2 C 89 % 10.44 C
1446 05-04-2014 09:15:00 12.2 C 90 % 10.61 C
1447 05-04-2014 09:20:00 12.2 C 89 % 10.44 C
1448 05-04-2014 09:25:00 12.2 C 89 % 10.44 C
1449 05-04-2014 09:30:00 12.2 C 89 % 10.44 C
1450 05-04-2014 09:35:00 12.2 C 90 % 10.61 C
Sensor: Nr:Datum:Temp:Feuchte:Taupunkt:
Aussen-T/F 1451 05-04-2014 09:40:00 12.2 C 89 % 10.44 C
1452 05-04-2014 09:45:00 12.2 C 89 % 10.44 C
1453 05-04-2014 09:50:00 12.2 C 90 % 10.61 C
1454 05-04-2014 09:55:00 12.2 C 90 % 10.61 C
1455 05-04-2014 10:00:00 12.2 C 89 % 10.44 C
1456 05-04-2014 10:05:00 12.1 C 89 % 10.34 C
1457 05-04-2014 10:10:00 12.1 C 90 % 10.51 C
1458 05-04-2014 10:15:00 12.1 C 90 % 10.51 C
1459 05-04-2014 10:20:00 12.1 C 90 % 10.51 C
1460 05-04-2014 10:25:00 12.1 C 90 % 10.51 C
1461 05-04-2014 10:30:00 12.1 C 90 % 10.51 C
1462 05-04-2014 10:35:00 12.1 C 90 % 10.51 C
1463 05-04-2014 10:40:00 12.1 C 89 % 10.34 C
1464 05-04-2014 10:45:00 12.2 C 89 % 10.44 C
1465 05-04-2014 10:50:00 12.2 C 89 % 10.44 C
1466 05-04-2014 10:55:00 12.2 C 89 % 10.44 C
1467 05-04-2014 11:00:00 12.2 C 89 % 10.44 C
1468 05-04-2014 11:05:00 12.2 C 89 % 10.44 C
1469 05-04-2014 11:10:00 12.3 C 88 % 10.37 C
1470 05-04-2014 11:15:00 12.3 C 88 % 10.37 C
1471 05-04-2014 11:20:00 12.3 C 88 % 10.37 C
1472 05-04-2014 11:25:00 12.3 C 88 % 10.37 C
1473 05-04-2014 11:30:00 12.3 C 88 % 10.37 C
1474 05-04-2014 11:35:00 12.4 C 88 % 10.47 C
1475 05-04-2014 11:40:00 12.4 C 88 % 10.47 C
Sensor: Nr:Datum:Temp:Feuchte:Taupunkt:
Aussen-T/F 1476 05-04-2014 11:45:00 12.4 C 88 % 10.47 C
1477 05-04-2014 11:50:00 12.6 C 87 % 10.5 C
1478 05-04-2014 11:55:00 12.7 C 88 % 10.77 C
1479 05-04-2014 12:00:00 12.7 C 87 % 10.59 C
1480 05-04-2014 12:05:00 12.8 C 87 % 10.69 C
1481 05-04-2014 12:10:00 12.8 C 87 % 10.69 C
1482 05-04-2014 12:15:00 12.8 C 87 % 10.69 C
1483 05-04-2014 12:20:00 13 C 87 % 10.89 C
1484 05-04-2014 12:25:00 13.1 C 87 % 10.99 C
1485 05-04-2014 12:30:00 13.2 C 87 % 11.09 C
1486 05-04-2014 12:35:00 13.1 C 86 % 10.81 C
1487 05-04-2014 12:40:00 13.3 C 86 % 11.01 C
1488 05-04-2014 12:45:00 13.3 C 87 % 11.18 C
1489 05-04-2014 12:50:00 13.4 C 87 % 11.28 C
1490 05-04-2014 12:55:00 13.4 C 87 % 11.28 C
1491 05-04-2014 13:00:00 13.9 C 87 % 11.77 C
1492 05-04-2014 13:05:00 13.9 C 87 % 11.77 C
1493 05-04-2014 13:10:00 13.9 C 87 % 11.77 C
1494 05-04-2014 15:45:00 15.5 C 77 % 11.49 C
1495 05-04-2014 15:50:00 15.5 C 77 % 11.49 C
1496 05-04-2014 15:55:00 15.3 C 76 % 11.1 C
1497 05-04-2014 16:00:00 15.3 C 76 % 11.1 C
1498 05-04-2014 16:05:00 15.3 C 76 % 11.1 C
1499 05-04-2014 16:10:00 15.2 C 77 % 11.2 C
1500 05-04-2014 16:15:00 15.2 C 76 % 11 C
Sensor: Nr:Datum:Temp:Feuchte:Taupunkt:
Aussen-T/F 1501 05-04-2014 16:20:00 15.2 C 76 % 11 C
1502 05-04-2014 16:25:00 15.2 C 76 % 11 C
1503 05-04-2014 16:30:00 15.1 C 76 % 10.9 C
1504 05-04-2014 16:35:00 15.1 C 76 % 10.9 C
1505 05-04-2014 16:40:00 15.1 C 76 % 10.9 C
1506 05-04-2014 16:45:00 15 C 76 % 10.81 C
1507 05-04-2014 16:50:00 14.9 C 77 % 10.91 C
1508 05-04-2014 16:55:00 14.9 C 77 % 10.91 C
1509 05-04-2014 17:00:00 14.9 C 77 % 10.91 C
1510 05-04-2014 17:05:00 14.9 C 77 % 10.91 C
1511 05-04-2014 17:10:00 14.9 C 77 % 10.91 C
1512 05-04-2014 17:15:00 14.9 C 76 % 10.71 C
1513 05-04-2014 17:20:00 14.9 C 76 % 10.71 C
1514 05-04-2014 17:25:00 14.9 C 76 % 10.71 C
1515 05-04-2014 17:30:00 14.9 C 76 % 10.71 C
1516 05-04-2014 17:35:00 14.9 C 76 % 10.71 C
1517 05-04-2014 17:55:00 14.8 C 100 % 14.8 C
1518 05-04-2014 18:00:00 14.7 C 78 % 10.91 C
1519 05-04-2014 18:05:00 14.7 C 78 % 10.91 C
1520 05-04-2014 19:00:00 14.7 C 100 % 14.7 C
1521 05-04-2014 19:05:00 14.7 C 78 % 10.91 C
1522 05-04-2014 19:10:00 14.6 C 79 % 11 C
1523 05-04-2014 19:15:00 14.6 C 78 % 10.81 C
1524 05-04-2014 19:20:00 14.4 C 79 % 10.81 C
1525 05-04-2014 19:25:00 14.4 C 80 % 11 C
Sensor: Nr:Datum:Temp:Feuchte:Taupunkt:
Aussen-T/F 1526 05-04-2014 19:30:00 14.3 C 81 % 11.09 C
1527 05-04-2014 19:35:00 14.2 C 81 % 10.99 C
1528 05-04-2014 19:40:00 14.1 C 82 % 11.08 C
1529 05-04-2014 19:45:00 13.9 C 82 % 10.88 C
1530 05-04-2014 19:50:00 13.8 C 83 % 10.97 C
1531 05-04-2014 19:55:00 13.8 C 83 % 10.97 C
1532 05-04-2014 20:00:00 13.7 C 83 % 10.87 C
1533 05-04-2014 20:05:00 13.6 C 83 % 10.77 C
1534 05-04-2014 20:10:00 13.6 C 83 % 10.77 C
1535 05-04-2014 20:15:00 13.5 C 83 % 10.67 C
1536 05-04-2014 20:20:00 13.4 C 84 % 10.75 C
1537 05-04-2014 20:25:00 13.4 C 84 % 10.75 C
1538 05-04-2014 20:30:00 13.3 C 84 % 10.66 C
1539 05-04-2014 20:35:00 13.3 C 84 % 10.66 C
1540 05-04-2014 20:40:00 13.2 C 84 % 10.56 C
1541 05-04-2014 20:45:00 13.2 C 85 % 10.74 C
1542 05-04-2014 20:50:00 13.2 C 85 % 10.74 C
1543 05-04-2014 20:55:00 13.2 C 85 % 10.74 C
1544 05-04-2014 21:00:00 13.2 C 85 % 10.74 C
1545 05-04-2014 21:05:00 13.1 C 85 % 10.64 C
1546 05-04-2014 21:10:00 13.1 C 85 % 10.64 C
1547 05-04-2014 21:15:00 13.1 C 85 % 10.64 C
1548 05-04-2014 21:20:00 13.1 C 85 % 10.64 C
1549 05-04-2014 21:25:00 13.1 C 85 % 10.64 C
1550 05-04-2014 21:30:00 13.1 C 86 % 10.81 C
Sensor: Nr:Datum:Temp:Feuchte:Taupunkt:
Aussen-T/F 1551 05-04-2014 21:35:00 13.1 C 86 % 10.81 C
1552 05-04-2014 21:40:00 13 C 86 % 10.72 C
1553 05-04-2014 21:45:00 13 C 86 % 10.72 C
1554 05-04-2014 21:50:00 13 C 86 % 10.72 C
1555 05-04-2014 21:55:00 12.9 C 86 % 10.62 C
1556 05-04-2014 22:00:00 12.9 C 86 % 10.62 C
1557 05-04-2014 22:05:00 12.9 C 87 % 10.79 C
1558 05-04-2014 22:10:00 12.9 C 87 % 10.79 C
1559 05-04-2014 22:15:00 12.9 C 87 % 10.79 C
1560 05-04-2014 22:20:00 12.8 C 87 % 10.69 C
1561 05-04-2014 22:25:00 12.8 C 86 % 10.52 C
1562 05-04-2014 22:30:00 12.7 C 87 % 10.59 C
1563 05-04-2014 22:35:00 12.7 C 87 % 10.59 C
1564 05-04-2014 22:40:00 12.7 C 87 % 10.59 C
1565 05-04-2014 22:45:00 12.6 C 87 % 10.5 C
1566 05-04-2014 22:50:00 12.4 C 86 % 10.13 C
1567 05-04-2014 22:55:00 12.2 C 87 % 10.1 C
1568 05-04-2014 23:00:00 12 C 87 % 9.91 C
1569 05-04-2014 23:05:00 11.8 C 87 % 9.71 C
1570 05-04-2014 23:10:00 11.7 C 88 % 9.78 C
1571 05-04-2014 23:15:00 11.5 C 87 % 9.41 C
1572 05-04-2014 23:20:00 11.3 C 88 % 9.39 C
1573 05-04-2014 23:25:00 11.2 C 88 % 9.29 C
1574 05-04-2014 23:30:00 11.2 C 89 % 9.46 C
1575 05-04-2014 23:35:00 11.1 C 89 % 9.36 C
Sensor: Nr:Datum:Temp:Feuchte:Taupunkt:
Aussen-T/F 1576 05-04-2014 23:40:00 11 C 90 % 9.42 C
1577 05-04-2014 23:45:00 10.9 C 89 % 9.16 C
1578 05-04-2014 23:50:00 10.8 C 89 % 9.06 C
1579 05-04-2014 23:55:00 10.7 C 89 % 8.96 C
1580 06-04-2014 00:00:00 10.6 C 90 % 9.03 C
1581 06-04-2014 00:05:00 10.4 C 91 % 9 C
1582 06-04-2014 00:10:00 10.4 C 91 % 9 C
1583 06-04-2014 00:15:00 10.3 C 91 % 8.9 C
1584 06-04-2014 00:20:00 10.2 C 91 % 8.8 C
1585 06-04-2014 00:25:00 10.1 C 91 % 8.7 C
1586 06-04-2014 00:30:00 10 C 91 % 8.6 C
1587 06-04-2014 00:35:00 9.9 C 91 % 8.5 C
1588 06-04-2014 00:40:00 9.8 C 92 % 8.56 C
1589 06-04-2014 00:45:00 9.8 C 93 % 8.72 C
1590 06-04-2014 00:50:00 9.8 C 92 % 8.56 C
1591 06-04-2014 00:55:00 9.7 C 92 % 8.46 C
1592 06-04-2014 01:00:00 9.6 C 92 % 8.37 C
1593 06-04-2014 01:05:00 9.5 C 92 % 8.27 C
1594 06-04-2014 01:10:00 9.4 C 93 % 8.33 C
1595 06-04-2014 01:15:00 9.4 C 93 % 8.33 C
1596 06-04-2014 01:20:00 9.3 C 93 % 8.23 C
1597 06-04-2014 01:25:00 9.3 C 93 % 8.23 C
1598 06-04-2014 01:30:00 9.2 C 93 % 8.13 C
1599 06-04-2014 01:35:00 9.2 C 93 % 8.13 C
1600 06-04-2014 01:40:00 9.1 C 93 % 8.03 C
Sensor: Nr:Datum:Temp:Feuchte:Taupunkt:
Aussen-T/F 1601 06-04-2014 01:45:00 8.9 C 93 % 7.83 C
1602 06-04-2014 01:50:00 8.8 C 93 % 7.73 C
1603 06-04-2014 01:55:00 8.7 C 94 % 7.79 C
1604 06-04-2014 02:00:00 8.7 C 94 % 7.79 C
1605 06-04-2014 02:05:00 8.7 C 94 % 7.79 C
1606 06-04-2014 02:10:00 8.7 C 94 % 7.79 C
1607 06-04-2014 02:15:00 8.6 C 94 % 7.69 C
1608 06-04-2014 02:20:00 8.5 C 94 % 7.59 C
1609 06-04-2014 02:25:00 8.4 C 94 % 7.49 C
1610 06-04-2014 02:30:00 8.3 C 94 % 7.39 C
1611 06-04-2014 02:35:00 8.3 C 95 % 7.55 C
1612 06-04-2014 02:40:00 8.3 C 95 % 7.55 C
1613 06-04-2014 02:45:00 8.3 C 95 % 7.55 C
1614 06-04-2014 02:50:00 8.3 C 95 % 7.55 C
1615 06-04-2014 02:55:00 8.3 C 95 % 7.55 C
1616 06-04-2014 03:00:00 8.2 C 95 % 7.45 C
1617 06-04-2014 03:05:00 8.2 C 95 % 7.45 C
1618 06-04-2014 03:10:00 8.1 C 95 % 7.35 C
1619 06-04-2014 03:15:00 8 C 95 % 7.25 C
1620 06-04-2014 03:20:00 7.9 C 95 % 7.15 C
1621 06-04-2014 03:25:00 7.8 C 95 % 7.05 C
1622 06-04-2014 03:30:00 7.9 C 95 % 7.15 C
1623 06-04-2014 03:35:00 7.9 C 95 % 7.15 C
1624 06-04-2014 03:40:00 7.8 C 95 % 7.05 C
1625 06-04-2014 03:45:00 7.7 C 95 % 6.95 C
Sensor: Nr:Datum:Temp:Feuchte:Taupunkt:
Aussen-T/F 1626 06-04-2014 03:50:00 7.7 C 95 % 6.95 C
1627 06-04-2014 03:55:00 7.6 C 95 % 6.85 C
1628 06-04-2014 04:00:00 7.5 C 95 % 6.75 C
1629 06-04-2014 04:05:00 7.4 C 95 % 6.65 C
1630 06-04-2014 04:10:00 7.3 C 95 % 6.55 C
1631 06-04-2014 04:15:00 7.3 C 95 % 6.55 C
1632 06-04-2014 04:20:00 7.2 C 95 % 6.45 C
1633 06-04-2014 04:25:00 7.2 C 95 % 6.45 C
1634 06-04-2014 04:30:00 7.1 C 96 % 6.51 C
1635 06-04-2014 04:35:00 7.1 C 95 % 6.35 C
1636 06-04-2014 04:40:00 7.1 C 96 % 6.51 C
1637 06-04-2014 04:45:00 7.1 C 96 % 6.51 C
1638 06-04-2014 04:50:00 7 C 96 % 6.41 C
1639 06-04-2014 04:55:00 7 C 96 % 6.41 C
1640 06-04-2014 05:00:00 6.9 C 96 % 6.31 C
1641 06-04-2014 05:05:00 7 C 96 % 6.41 C
1642 06-04-2014 05:10:00 7 C 96 % 6.41 C
1643 06-04-2014 05:15:00 6.9 C 96 % 6.31 C
1644 06-04-2014 05:20:00 6.8 C 96 % 6.21 C
1645 06-04-2014 05:25:00 6.9 C 96 % 6.31 C
1646 06-04-2014 05:30:00 6.9 C 96 % 6.31 C
1647 06-04-2014 05:35:00 6.9 C 96 % 6.31 C
1648 06-04-2014 05:40:00 7.1 C 97 % 6.66 C
1649 06-04-2014 05:45:00 7.2 C 96 % 6.61 C
1650 06-04-2014 05:50:00 7.2 C 96 % 6.61 C
Sensor: Nr:Datum:Temp:Feuchte:Taupunkt:
Aussen-T/F 1651 06-04-2014 05:55:00 7.3 C 97 % 6.86 C
1652 06-04-2014 06:00:00 7.3 C 97 % 6.86 C
1653 06-04-2014 06:05:00 7.3 C 96 % 6.71 C
1654 06-04-2014 06:10:00 7.3 C 96 % 6.71 C
1655 06-04-2014 06:15:00 7.3 C 96 % 6.71 C
1656 06-04-2014 06:20:00 7.3 C 97 % 6.86 C
1657 06-04-2014 06:25:00 7.2 C 96 % 6.61 C
1658 06-04-2014 06:30:00 7.2 C 97 % 6.76 C
1659 06-04-2014 06:35:00 7.1 C 97 % 6.66 C
1660 06-04-2014 06:40:00 7.1 C 97 % 6.66 C
1661 06-04-2014 06:45:00 7.1 C 97 % 6.66 C
1662 06-04-2014 06:50:00 7.1 C 97 % 6.66 C
1663 06-04-2014 06:55:00 7.1 C 97 % 6.66 C
1664 06-04-2014 07:00:00 7.1 C 97 % 6.66 C
1665 06-04-2014 07:05:00 7.1 C 97 % 6.66 C
1666 06-04-2014 07:10:00 7.1 C 97 % 6.66 C
1667 06-04-2014 07:15:00 7.1 C 97 % 6.66 C
1668 06-04-2014 07:20:00 7.2 C 97 % 6.76 C
1669 06-04-2014 07:25:00 7.2 C 97 % 6.76 C
1670 06-04-2014 07:30:00 7.3 C 97 % 6.86 C
1671 06-04-2014 07:35:00 7.3 C 97 % 6.86 C
1672 06-04-2014 07:40:00 7.3 C 97 % 6.86 C
1673 06-04-2014 07:45:00 7.3 C 97 % 6.86 C
1674 06-04-2014 07:50:00 7.3 C 97 % 6.86 C
1675 06-04-2014 07:55:00 7.3 C 97 % 6.86 C
Sensor: Nr:Datum:Temp:Feuchte:Taupunkt:
Aussen-T/F 1676 06-04-2014 08:00:00 7.4 C 97 % 6.96 C
1677 06-04-2014 08:05:00 7.4 C 97 % 6.96 C
1678 06-04-2014 08:10:00 7.4 C 97 % 6.96 C
1679 06-04-2014 08:15:00 7.5 C 97 % 7.06 C
1680 06-04-2014 08:20:00 7.6 C 97 % 7.16 C
1681 06-04-2014 08:25:00 7.8 C 97 % 7.35 C
1682 06-04-2014 08:30:00 7.9 C 97 % 7.45 C
1683 06-04-2014 08:35:00 8 C 97 % 7.55 C
1684 06-04-2014 08:40:00 7.9 C 97 % 7.45 C
1685 06-04-2014 08:45:00 7.9 C 97 % 7.45 C
1686 06-04-2014 08:50:00 7.9 C 97 % 7.45 C
1687 06-04-2014 08:55:00 7.9 C 97 % 7.45 C
1688 06-04-2014 09:00:00 7.9 C 97 % 7.45 C
1689 06-04-2014 09:05:00 7.9 C 97 % 7.45 C
1690 06-04-2014 09:10:00 7.9 C 97 % 7.45 C
1691 06-04-2014 09:15:00 8 C 97 % 7.55 C
1692 06-04-2014 09:20:00 8.1 C 97 % 7.65 C
1693 06-04-2014 09:25:00 8.1 C 97 % 7.65 C
1694 06-04-2014 09:30:00 8.2 C 97 % 7.75 C
1695 06-04-2014 09:35:00 8.2 C 97 % 7.75 C
1696 06-04-2014 09:40:00 8.3 C 97 % 7.85 C
1697 06-04-2014 09:45:00 8.4 C 97 % 7.95 C
1698 06-04-2014 09:50:00 8.6 C 97 % 8.15 C
1699 06-04-2014 09:55:00 8.7 C 97 % 8.25 C
1700 06-04-2014 10:00:00 8.8 C 97 % 8.35 C
Sensor: Nr:Datum:Temp:Feuchte:Taupunkt:
Aussen-T/F 1701 06-04-2014 10:05:00 9 C 97 % 8.55 C
1702 06-04-2014 10:10:00 9.2 C 97 % 8.75 C
1703 06-04-2014 10:15:00 9.4 C 97 % 8.95 C
1704 06-04-2014 10:20:00 9.6 C 97 % 9.15 C
1705 06-04-2014 10:25:00 9.9 C 97 % 9.45 C
1706 06-04-2014 10:30:00 10.2 C 96 % 9.59 C
1707 06-04-2014 10:35:00 10.6 C 94 % 9.68 C
1708 06-04-2014 10:40:00 11 C 92 % 9.75 C
1709 06-04-2014 10:45:00 11.3 C 91 % 9.89 C
1710 06-04-2014 10:50:00 11.7 C 88 % 9.78 C
1711 06-04-2014 10:55:00 12.1 C 85 % 9.66 C
1712 06-04-2014 11:00:00 12.6 C 83 % 9.79 C
1713 06-04-2014 11:05:00 12.9 C 81 % 9.72 C
1714 06-04-2014 11:10:00 13.3 C 79 % 9.74 C
1715 06-04-2014 11:15:00 13.7 C 78 % 9.94 C
1716 06-04-2014 11:20:00 14 C 75 % 9.64 C
1717 06-04-2014 11:25:00 14.2 C 74 % 9.64 C
1718 06-04-2014 11:30:00 14.3 C 74 % 9.73 C
1719 06-04-2014 11:35:00 14.3 C 74 % 9.73 C
1720 06-04-2014 11:55:00 15.6 C 67 % 9.5 C
1721 06-04-2014 12:00:00 15.9 C 66 % 9.56 C
1722 06-04-2014 12:05:00 16.1 C 64 % 9.29 C
1723 06-04-2014 12:10:00 16.2 C 64 % 9.39 C
1724 06-04-2014 12:15:00 16.2 C 64 % 9.39 C
1725 06-04-2014 12:20:00 16.2 C 63 % 9.16 C
Sensor: Nr:Datum:Temp:Feuchte:Taupunkt:
Aussen-T/F 1726 06-04-2014 12:25:00 16.3 C 63 % 9.25 C
1727 06-04-2014 12:30:00 16.4 C 62 % 9.11 C
1728 06-04-2014 12:35:00 16.7 C 60 % 8.9 C
1729 06-04-2014 12:40:00 16.8 C 60 % 9 C
1730 06-04-2014 12:45:00 16.9 C 61 % 9.34 C
1731 06-04-2014 12:50:00 17.1 C 60 % 9.28 C
1732 06-04-2014 12:55:00 17.3 C 60 % 9.47 C
1733 06-04-2014 13:00:00 17.6 C 59 % 9.5 C
1734 06-04-2014 13:05:00 17.7 C 61 % 10.09 C
1735 06-04-2014 13:10:00 17.7 C 61 % 10.09 C
1736 06-04-2014 13:30:00 18.7 C 56 % 9.75 C
1737 06-04-2014 13:35:00 18.7 C 54 % 9.21 C
1738 06-04-2014 13:40:00 18.9 C 56 % 9.94 C
1739 06-04-2014 13:45:00 19 C 56 % 10.03 C
1740 06-04-2014 13:50:00 19.2 C 56 % 10.22 C
1741 06-04-2014 13:55:00 19.3 C 57 % 10.58 C
1742 06-04-2014 14:00:00 19.7 C 53 % 9.86 C
1743 06-04-2014 14:05:00 19.6 C 52 % 9.48 C
1744 06-04-2014 14:10:00 19.4 C 54 % 9.86 C
1745 06-04-2014 14:15:00 19.3 C 54 % 9.77 C
1746 06-04-2014 14:20:00 19.1 C 55 % 9.86 C
1747 06-04-2014 14:25:00 19.3 C 54 % 9.77 C
1748 06-04-2014 14:30:00 19.5 C 54 % 9.95 C
1749 06-04-2014 14:35:00 19.5 C 54 % 9.95 C
1750 06-04-2014 14:40:00 19.5 C 54 % 9.95 C
Sensor: Nr:Datum:Temp:Feuchte:Taupunkt:
Aussen-T/F 1751 06-04-2014 14:45:00 19.5 C 54 % 9.95 C
1752 06-04-2014 15:25:00 19.3 C 55 % 10.04 C
1753 06-04-2014 15:30:00 19.3 C 55 % 10.04 C
1754 06-04-2014 15:35:00 19.2 C 54 % 9.67 C
1755 06-04-2014 15:40:00 19.1 C 55 % 9.86 C
1756 06-04-2014 15:45:00 18.9 C 56 % 9.94 C
1757 06-04-2014 15:50:00 18.9 C 56 % 9.94 C
1758 06-04-2014 15:55:00 18.9 C 56 % 9.94 C
1759 06-04-2014 16:00:00 18.9 C 56 % 9.94 C
1760 06-04-2014 17:20:00 18.3 C 58 % 9.9 C
1761 06-04-2014 17:25:00 18.3 C 58 % 9.9 C
1762 06-04-2014 17:30:00 18.3 C 58 % 9.9 C
1763 06-04-2014 17:35:00 18.3 C 58 % 9.9 C
1764 06-04-2014 17:40:00 18.3 C 58 % 9.9 C
1765 06-04-2014 19:30:00 16.6 C 67 % 10.45 C
1766 06-04-2014 19:35:00 16.6 C 67 % 10.45 C
1767 06-04-2014 19:40:00 16.6 C 67 % 10.45 C
1768 06-04-2014 19:45:00 16.4 C 69 % 10.7 C
1769 06-04-2014 19:50:00 16.4 C 69 % 10.7 C
1770 06-04-2014 19:55:00 16.1 C 67 % 9.98 C
1771 06-04-2014 20:00:00 16 C 70 % 10.54 C
1772 06-04-2014 20:05:00 15.7 C 70 % 10.25 C
1773 06-04-2014 20:10:00 15.3 C 71 % 10.08 C
1774 06-04-2014 20:15:00 15.1 C 72 % 10.09 C
1775 06-04-2014 20:20:00 14.9 C 72 % 9.9 C
Sensor: Nr:Datum:Temp:Feuchte:Taupunkt:
Aussen-T/F 1776 06-04-2014 20:25:00 14.8 C 73 % 10.01 C
1777 06-04-2014 20:30:00 14.7 C 74 % 10.12 C
1778 06-04-2014 20:35:00 14.6 C 74 % 10.02 C
1779 06-04-2014 20:40:00 14.6 C 74 % 10.02 C
1780 06-04-2014 20:45:00 14.5 C 74 % 9.93 C
1781 06-04-2014 20:50:00 14.4 C 74 % 9.83 C
1782 06-04-2014 20:55:00 14.2 C 76 % 10.03 C
1783 06-04-2014 21:00:00 14.1 C 75 % 9.74 C
1784 06-04-2014 21:05:00 14 C 76 % 9.84 C
1785 06-04-2014 21:10:00 13.8 C 77 % 9.84 C
1786 06-04-2014 21:15:00 13.7 C 77 % 9.75 C
1787 06-04-2014 21:20:00 13.6 C 78 % 9.84 C
1788 06-04-2014 21:25:00 13.7 C 78 % 9.94 C
1789 06-04-2014 21:30:00 13.7 C 78 % 9.94 C
1790 06-04-2014 21:35:00 13.8 C 78 % 10.03 C
1791 06-04-2014 21:40:00 13.8 C 79 % 10.22 C
1792 06-04-2014 21:45:00 13.9 C 78 % 10.13 C
1793 06-04-2014 21:50:00 13.9 C 78 % 10.13 C
1794 06-04-2014 21:55:00 13.9 C 78 % 10.13 C
1795 06-04-2014 22:00:00 13.9 C 78 % 10.13 C
1796 06-04-2014 22:05:00 13.8 C 79 % 10.22 C
1797 06-04-2014 22:10:00 13.7 C 78 % 9.94 C
1798 06-04-2014 22:15:00 13.7 C 79 % 10.13 C
1799 06-04-2014 22:20:00 13.7 C 79 % 10.13 C
1800 06-04-2014 22:25:00 13.7 C 79 % 10.13 C
Sensor: Nr:Datum:Temp:Feuchte:Taupunkt:
Aussen-T/F 1801 06-04-2014 22:30:00 13.8 C 78 % 10.03 C
1802 06-04-2014 22:35:00 13.8 C 79 % 10.22 C
1803 06-04-2014 22:40:00 14 C 78 % 10.23 C
1804 06-04-2014 22:45:00 14.2 C 77 % 10.23 C
1805 06-04-2014 22:50:00 14.2 C 77 % 10.23 C
1806 06-04-2014 22:55:00 14.3 C 77 % 10.33 C
1807 06-04-2014 23:00:00 14.3 C 76 % 10.13 C
1808 06-04-2014 23:05:00 14.2 C 76 % 10.03 C
1809 06-04-2014 23:10:00 14.1 C 77 % 10.13 C
1810 06-04-2014 23:15:00 13.9 C 77 % 9.94 C
1811 06-04-2014 23:20:00 13.9 C 78 % 10.13 C
1812 06-04-2014 23:25:00 13.8 C 78 % 10.03 C
1813 06-04-2014 23:30:00 13.7 C 79 % 10.13 C
1814 06-04-2014 23:35:00 13.7 C 78 % 9.94 C
1815 06-04-2014 23:40:00 13.8 C 77 % 9.84 C
1816 06-04-2014 23:45:00 14.1 C 77 % 10.13 C
1817 06-04-2014 23:50:00 14.2 C 78 % 10.42 C
1818 06-04-2014 23:55:00 14.2 C 77 % 10.23 C

Legende:
   Min
   Max


Maximal/Minimal-Werte vom 31.03.2014 - 06.04.2014

Sensor Min Max Avg
Temp
(Aussen-T/F)
6.2 °C
31-03-2014  07:10:00
24 °C
02-04-2014  17:05:00
13.32 °C
Feuchte
(Aussen-T/F)
21 %
31-03-2014  15:25:00
100 %
01-04-2014  21:10:00
74.45 %
Taupunkt
(Aussen-T/F)
-1.39 C
31-03-2014  15:25:00
19.4 C
04-04-2014  18:25:00
8.29 C

Die Daten stammen von einer Davis Vantage Pro 2 Wetter-Station und werden unter Linux mit der Software wview2wettercgi und aufbereitet. Alle Angaben erfolgen ohne Gewähr für ihre Vollständigkeit oder Richtigkeit.
Kontakt: Rainer Krienke krienke@uni-koblenz.de . Meine Webseiten an der Uni Koblenz oder privat.
Version: $Revision: 0.78 $